Wetterdaten: Mittwoch, 04.11.2009
Datum Zeit Temp. Innen Temp. Aussen UV X Diff Temp. Feuchte Inne Feuchte Auss Sonnenschein Luftdruck Regen ab 0,1 Wind Sonnenschein Windben
04.11.2009 00:00 15,2 C 8,9 C 0,0 UV-I 0,0 C 64 % 94 % 0 % 984,0 hPa 0,0 l/m 0,7 km/h (0 Bft) 0 min 0,0 km/h (0 Bft)
04.11.2009 00:02 15,2 C 8,9 C 0,0 UV-I 0,0 C 64 % 94 % 0 % 984,0 hPa 0,0 l/m 0,0 km/h (0 Bft) 0 min 3,1 km/h (1 Bft)
04.11.2009 00:04 15,2 C 8,8 C 0,0 UV-I 0,0 C 64 % 94 % 0 % 984,0 hPa 0,0 l/m 0,0 km/h (0 Bft) 0 min 0,0 km/h (0 Bft)
04.11.2009 00:06 15,2 C 8,9 C 0,0 UV-I 0,0 C 64 % 94 % 0 % 984,0 hPa 0,2 l/m 0,0 km/h (0 Bft) 0 min 0,0 km/h (0 Bft)
04.11.2009 00:10 15,2 C 8,9 C 0,0 UV-I 0,0 C 64 % 94 % 0 % 984,0 hPa 0,2 l/m 0,2 km/h (0 Bft) 0 min 0,0 km/h (0 Bft)
04.11.2009 00:12 15,2 C 8,9 C 0,0 UV-I 0,0 C 64 % 94 % 0 % 984,0 hPa 0,1 l/m 0,2 km/h (0 Bft) 0 min 0,0 km/h (0 Bft)
04.11.2009 00:14 15,2 C 8,9 C 0,0 UV-I 0,0 C 64 % 94 % 0 % 984,0 hPa 0,0 l/m 0,0 km/h (0 Bft) 0 min 0,0 km/h (0 Bft)
04.11.2009 00:16 15,1 C 8,9 C 0,0 UV-I 0,0 C 64 % 94 % 0 % 983,6 hPa 0,0 l/m 0,0 km/h (0 Bft) 0 min 0,0 km/h (0 Bft)
04.11.2009 00:18 15,1 C 8,9 C 0,0 UV-I 0,0 C 64 % 94 % 0 % 983,6 hPa 0,1 l/m 0,0 km/h (0 Bft) 0 min 0,0 km/h (0 Bft)
04.11.2009 00:20 15,1 C 9,0 C 0,0 UV-I 0,0 C 64 % 94 % 0 % 983,6 hPa 0,0 l/m 0,0 km/h (0 Bft) 0 min 0,0 km/h (0 Bft)
04.11.2009 00:22 15,1 C 9,0 C 0,0 UV-I 0,0 C 64 % 94 % 0 % 983,6 hPa 0,2 l/m 0,0 km/h (0 Bft) 0 min 0,0 km/h (0 Bft)
04.11.2009 00:24 15,1 C 9,1 C 0,0 UV-I 0,0 C 64 % 94 % 0 % 983,6 hPa 0,0 l/m 0,0 km/h (0 Bft) 0 min 0,0 km/h (0 Bft)
04.11.2009 00:26 15,1 C 9,0 C 0,0 UV-I 0,0 C 64 % 94 % 0 % 983,6 hPa 0,1 l/m 0,0 km/h (0 Bft) 0 min 0,0 km/h (0 Bft)
04.11.2009 00:28 15,1 C 9,1 C 0,0 UV-I 0,0 C 64 % 94 % 0 % 983,6 hPa 0,3 l/m 0,0 km/h (0 Bft) 0 min 0,0 km/h (0 Bft)
04.11.2009 00:30 15,1 C 9,1 C 0,0 UV-I 0,0 C 64 % 94 % 0 % 983,6 hPa 0,0 l/m 0,0 km/h (0 Bft) 0 min 2,6 km/h (1 Bft)
04.11.2009 00:32 15,1 C 9,1 C 0,0 UV-I 0,0 C 64 % 94 % 0 % 983,6 hPa 0,4 l/m 0,0 km/h (0 Bft) 0 min 0,0 km/h (0 Bft)
04.11.2009 00:34 15,3 C 9,1 C 0,0 UV-I 0,0 C 64 % 94 % 0 % 983,6 hPa 0,4 l/m 0,0 km/h (0 Bft) 0 min 0,0 km/h (0 Bft)
04.11.2009 00:36 15,1 C 9,1 C 0,0 UV-I 0,0 C 64 % 94 % 0 % 983,6 hPa 0,0 l/m 0,0 km/h (0 Bft) 0 min 0,0 km/h (0 Bft)
04.11.2009 00:38 15,3 C 9,1 C 0,0 UV-I 0,0 C 64 % 94 % 0 % 983,6 hPa 0,4 l/m 0,0 km/h (0 Bft) 0 min 0,0 km/h (0 Bft)
04.11.2009 00:40 15,3 C 9,1 C 0,0 UV-I 0,0 C 64 % 94 % 0 % 983,6 hPa 0,2 l/m 0,0 km/h (0 Bft) 0 min 0,0 km/h (0 Bft)
04.11.2009 00:42 15,3 C 9,1 C 0,0 UV-I 0,0 C 64 % 94 % 0 % 983,6 hPa 0,0 l/m 0,0 km/h (0 Bft) 0 min 0,0 km/h (0 Bft)
04.11.2009 00:44 15,3 C 9,0 C 0,0 UV-I 0,0 C 64 % 94 % 0 % 983,6 hPa 0,1 l/m 0,0 km/h (0 Bft) 0 min 0,0 km/h (0 Bft)
04.11.2009 00:46 15,2 C 9,0 C 0,0 UV-I 0,0 C 64 % 94 % 0 % 983,6 hPa 0,0 l/m 0,0 km/h (0 Bft) 0 min 0,0 km/h (0 Bft)
04.11.2009 00:48 15,2 C 9,0 C 0,0 UV-I 0,0 C 64 % 94 % 0 % 983,6 hPa 0,0 l/m 0,0 km/h (0 Bft) 0 min 0,0 km/h (0 Bft)
04.11.2009 00:50 15,2 C 9,1 C 0,0 UV-I 0,0 C 64 % 94 % 0 % 983,6 hPa 0,1 l/m 0,0 km/h (0 Bft) 0 min 0,0 km/h (0 Bft)
04.11.2009 00:52 15,2 C 9,1 C 0,0 UV-I 0,0 C 64 % 94 % 0 % 983,6 hPa 0,0 l/m 0,0 km/h (0 Bft) 0 min 0,0 km/h (0 Bft)
04.11.2009 00:54 15,4 C 9,1 C 0,0 UV-I 0,0 C 64 % 94 % 0 % 983,6 hPa 0,0 l/m 0,0 km/h (0 Bft) 0 min 0,0 km/h (0 Bft)
04.11.2009 00:58 15,4 C 9,1 C 0,0 UV-I 0,0 C 64 % 94 % 0 % 983,2 hPa 0,1 l/m 0,0 km/h (0 Bft) 0 min 0,0 km/h (0 Bft)
04.11.2009 01:00 15,4 C 9,1 C 0,0 UV-I 0,0 C 64 % 94 % 0 % 983,2 hPa 0,0 l/m 0,2 km/h (0 Bft) 0 min 4,6 km/h (1 Bft)
04.11.2009 01:02 15,4 C 9,1 C 0,0 UV-I 0,0 C 64 % 94 % 0 % 983,2 hPa 0,0 l/m 0,2 km/h (0 Bft) 0 min 0,0 km/h (0 Bft)
04.11.2009 01:04 15,4 C 9,1 C 0,0 UV-I 0,0 C 64 % 94 % 0 % 983,2 hPa 0,0 l/m 0,2 km/h (0 Bft) 0 min 0,0 km/h (0 Bft)
04.11.2009 01:06 15,4 C 9,1 C 0,0 UV-I 0,0 C 64 % 94 % 0 % 983,2 hPa 0,0 l/m 0,2 km/h (0 Bft) 0 min 0,0 km/h (0 Bft)
04.11.2009 01:08 15,4 C 9,1 C 0,0 UV-I 0,0 C 64 % 94 % 0 % 983,2 hPa 0,0 l/m 0,5 km/h (0 Bft) 0 min 2,4 km/h (1 Bft)
04.11.2009 01:10 15,4 C 9,1 C 0,0 UV-I 0,0 C 64 % 94 % 0 % 983,2 hPa 0,0 l/m 0,5 km/h (0 Bft) 0 min 2,9 km/h (1 Bft)
04.11.2009 01:12 15,4 C 9,1 C 0,0 UV-I 0,0 C 64 % 94 % 0 % 983,2 hPa 0,0 l/m 0,5 km/h (0 Bft) 0 min 0,0 km/h (0 Bft)
04.11.2009 01:14 15,4 C 9,1 C 0,0 UV-I 0,0 C 64 % 94 % 0 % 983,2 hPa 0,0 l/m 0,5 km/h (0 Bft) 0 min 0,0 km/h (0 Bft)
04.11.2009 01:16 15,4 C 9,1 C 0,0 UV-I 0,0 C 65 % 94 % 0 % 983,1 hPa 0,0 l/m 0,7 km/h (0 Bft) 0 min 0,0 km/h (0 Bft)
04.11.2009 01:18 15,4 C 9,2 C 0,0 UV-I 0,0 C 65 % 94 % 0 % 983,1 hPa 0,0 l/m 0,5 km/h (0 Bft) 0 min 3,1 km/h (1 Bft)
04.11.2009 01:20 15,4 C 9,2 C 0,0 UV-I 0,0 C 65 % 94 % 0 % 983,1 hPa 0,0 l/m 1,0 km/h (0 Bft) 0 min 4,3 km/h (1 Bft)
04.11.2009 01:22 15,4 C 9,2 C 0,0 UV-I 0,0 C 65 % 94 % 0 % 983,1 hPa 0,0 l/m 0,7 km/h (0 Bft) 0 min 0,0 km/h (0 Bft)
04.11.2009 01:24 15,4 C 9,2 C 0,0 UV-I 0,0 C 65 % 94 % 0 % 983,1 hPa 0,0 l/m 0,7 km/h (0 Bft) 0 min 0,0 km/h (0 Bft)
04.11.2009 01:26 15,4 C 9,2 C 0,0 UV-I 0,0 C 65 % 94 % 0 % 983,1 hPa 0,0 l/m 0,7 km/h (0 Bft) 0 min 0,0 km/h (0 Bft)
04.11.2009 01:28 15,4 C 9,2 C 0,0 UV-I 0,0 C 65 % 94 % 0 % 983,1 hPa 0,0 l/m 0,7 km/h (0 Bft) 0 min 3,1 km/h (1 Bft)
04.11.2009 01:32 15,4 C 9,2 C 0,0 UV-I 0,0 C 65 % 95 % 0 % 983,1 hPa 0,0 l/m 0,0 km/h (0 Bft) 0 min 0,0 km/h (0 Bft)
04.11.2009 01:34 15,4 C 9,2 C 0,0 UV-I 0,0 C 65 % 95 % 0 % 983,1 hPa 0,0 l/m 0,5 km/h (0 Bft) 0 min 3,8 km/h (1 Bft)
04.11.2009 01:36 15,4 C 9,2 C 0,0 UV-I 0,0 C 65 % 95 % 0 % 982,9 hPa 0,0 l/m 0,7 km/h (0 Bft) 0 min 3,6 km/h (1 Bft)
04.11.2009 01:38 15,4 C 9,2 C 0,0 UV-I 0,0 C 65 % 95 % 0 % 982,9 hPa 0,0 l/m 1,4 km/h (1 Bft) 0 min 2,4 km/h (1 Bft)
04.11.2009 01:40 15,4 C 9,3 C 0,0 UV-I 0,0 C 65 % 94 % 0 % 982,9 hPa 0,0 l/m 1,4 km/h (1 Bft) 0 min 6,3 km/h (2 Bft)
04.11.2009 01:42 15,4 C 9,2 C 0,0 UV-I 0,0 C 65 % 95 % 0 % 982,9 hPa 0,1 l/m 1,4 km/h (1 Bft) 0 min 0,0 km/h (0 Bft)
04.11.2009 01:44 15,4 C 9,2 C 0,0 UV-I 0,0 C 65 % 95 % 0 % 982,9 hPa 0,0 l/m 1,7 km/h (1 Bft) 0 min 2,6 km/h (1 Bft)
04.11.2009 01:46 15,4 C 9,3 C 0,0 UV-I 0,0 C 65 % 95 % 0 % 982,9 hPa 0,0 l/m 1,4 km/h (1 Bft) 0 min 3,1 km/h (1 Bft)
04.11.2009 01:48 15,4 C 9,2 C 0,0 UV-I 0,0 C 65 % 95 % 0 % 982,9 hPa 0,0 l/m 1,2 km/h (1 Bft) 0 min 4,1 km/h (1 Bft)
04.11.2009 01:50 15,4 C 9,3 C 0,0 UV-I 0,0 C 65 % 95 % 0 % 982,9 hPa 0,1 l/m 1,0 km/h (0 Bft) 0 min 0,0 km/h (0 Bft)
04.11.2009 01:52 15,4 C 9,3 C 0,0 UV-I 0,0 C 65 % 95 % 0 % 982,9 hPa 0,0 l/m 0,7 km/h (0 Bft) 0 min 2,6 km/h (1 Bft)
04.11.2009 01:54 15,4 C 9,2 C 0,0 UV-I 0,0 C 65 % 95 % 0 % 982,9 hPa 0,0 l/m 1,0 km/h (0 Bft) 0 min 2,9 km/h (1 Bft)
04.11.2009 01:56 15,4 C 9,3 C 0,0 UV-I 0,0 C 65 % 95 % 0 % 982,6 hPa 0,0 l/m 0,7 km/h (0 Bft) 0 min 0,0 km/h (0 Bft)
04.11.2009 01:58 15,4 C 9,3 C 0,0 UV-I 0,0 C 65 % 95 % 0 % 982,6 hPa 0,0 l/m 1,0 km/h (0 Bft) 0 min 3,6 km/h (1 Bft)
04.11.2009 02:00 15,4 C 9,2 C 0,0 UV-I 0,0 C 65 % 95 % 0 % 982,6 hPa 0,0 l/m 0,7 km/h (0 Bft) 0 min 3,1 km/h (1 Bft)
04.11.2009 02:02 15,4 C 9,2 C 0,0 UV-I 0,0 C 65 % 95 % 0 % 982,6 hPa 0,0 l/m 1,2 km/h (1 Bft) 0 min 4,8 km/h (1 Bft)
04.11.2009 02:04 15,4 C 9,3 C 0,0 UV-I 0,0 C 65 % 95 % 0 % 982,6 hPa 0,0 l/m 1,4 km/h (1 Bft) 0 min 3,6 km/h (1 Bft)
04.11.2009 02:06 15,4 C 9,3 C 0,0 UV-I 0,0 C 65 % 95 % 0 % 982,6 hPa 0,0 l/m 1,2 km/h (1 Bft) 0 min 0,0 km/h (0 Bft)
04.11.2009 02:08 15,4 C 9,3 C 0,0 UV-I 0,0 C 65 % 95 % 0 % 982,6 hPa 0,0 l/m 1,0 km/h (0 Bft) 0 min 0,0 km/h (0 Bft)
04.11.2009 02:10 15,4 C 9,2 C 0,0 UV-I 0,0 C 65 % 95 % 0 % 982,6 hPa 0,0 l/m 1,0 km/h (0 Bft) 0 min 0,0 km/h (0 Bft)
04.11.2009 02:12 15,4 C 9,2 C 0,0 UV-I 0,0 C 65 % 95 % 0 % 982,6 hPa 0,0 l/m 0,7 km/h (0 Bft) 0 min 0,0 km/h (0 Bft)
04.11.2009 02:14 15,4 C 9,2 C 0,0 UV-I 0,0 C 65 % 95 % 0 % 982,6 hPa 0,0 l/m 0,5 km/h (0 Bft) 0 min 3,4 km/h (1 Bft)
04.11.2009 02:16 15,4 C 9,3 C 0,0 UV-I 0,0 C 65 % 95 % 0 % 982,8 hPa 0,0 l/m 0,2 km/h (0 Bft) 0 min 0,0 km/h (0 Bft)
04.11.2009 02:18 15,4 C 9,3 C 0,0 UV-I 0,0 C 65 % 95 % 0 % 982,8 hPa 0,0 l/m 0,2 km/h (0 Bft) 0 min 0,0 km/h (0 Bft)
04.11.2009 02:20 15,4 C 9,4 C 0,0 UV-I 0,0 C 65 % 95 % 0 % 982,8 hPa 0,0 l/m 0,2 km/h (0 Bft) 0 min 0,0 km/h (0 Bft)
04.11.2009 02:22 15,4 C 9,4 C 0,0 UV-I 0,0 C 65 % 95 % 0 % 982,8 hPa 0,0 l/m 0,2 km/h (0 Bft) 0 min 0,0 km/h (0 Bft)
04.11.2009 02:26 15,4 C 9,4 C 0,0 UV-I 0,0 C 65 % 95 % 0 % 982,8 hPa 0,0 l/m 0,2 km/h (0 Bft) 0 min 0,0 km/h (0 Bft)
04.11.2009 02:28 15,4 C 9,5 C 0,0 UV-I 0,0 C 65 % 95 % 0 % 982,8 hPa 0,0 l/m 0,2 km/h (0 Bft) 0 min 0,0 km/h (0 Bft)
04.11.2009 02:30 15,4 C 9,5 C 0,0 UV-I 0,0 C 65 % 95 % 0 % 982,8 hPa 0,0 l/m 0,0 km/h (0 Bft) 0 min 0,0 km/h (0 Bft)
04.11.2009 02:32 15,4 C 9,5 C 0,0 UV-I 0,0 C 65 % 95 % 0 % 982,8 hPa 0,0 l/m 0,0 km/h (0 Bft) 0 min 0,0 km/h (0 Bft)
04.11.2009 02:34 15,4 C 9,5 C 0,0 UV-I 0,0 C 65 % 95 % 0 % 982,8 hPa 0,0 l/m 0,0 km/h (0 Bft) 0 min 0,0 km/h (0 Bft)
04.11.2009 02:36 15,4 C 9,5 C 0,0 UV-I 0,0 C 65 % 95 % 0 % 982,6 hPa 0,0 l/m 0,0 km/h (0 Bft) 0 min 0,0 km/h (0 Bft)
04.11.2009 02:38 15,4 C 9,5 C 0,0 UV-I 0,0 C 65 % 95 % 0 % 982,6 hPa 0,0 l/m 0,0 km/h (0 Bft) 0 min 0,0 km/h (0 Bft)
04.11.2009 02:42 15,4 C 9,5 C 0,0 UV-I 0,0 C 65 % 95 % 0 % 982,6 hPa 0,0 l/m 0,0 km/h (0 Bft) 0 min 0,0 km/h (0 Bft)
04.11.2009 02:44 15,4 C 9,5 C 0,0 UV-I 0,0 C 65 % 95 % 0 % 982,6 hPa 0,0 l/m 0,0 km/h (0 Bft) 0 min 2,4 km/h (1 Bft)
04.11.2009 02:46 15,4 C 9,5 C 0,0 UV-I 0,0 C 65 % 95 % 0 % 982,6 hPa 0,0 l/m 0,2 km/h (0 Bft) 0 min 0,0 km/h (0 Bft)
04.11.2009 02:48 15,4 C 9,5 C 0,0 UV-I 0,0 C 65 % 95 % 0 % 982,6 hPa 0,0 l/m 0,2 km/h (0 Bft) 0 min 0,0 km/h (0 Bft)
04.11.2009 02:50 15,4 C 9,5 C 0,0 UV-I 0,0 C 65 % 95 % 0 % 982,6 hPa 0,0 l/m 0,2 km/h (0 Bft) 0 min 0,0 km/h (0 Bft)
04.11.2009 02:52 15,4 C 9,5 C 0,0 UV-I 0,0 C 65 % 95 % 0 % 982,6 hPa 0,0 l/m 0,2 km/h (0 Bft) 0 min 0,0 km/h (0 Bft)
04.11.2009 02:54 15,4 C 9,5 C 0,0 UV-I 0,0 C 65 % 95 % 0 % 982,6 hPa 0,1 l/m 0,5 km/h (0 Bft) 0 min 0,0 km/h (0 Bft)
04.11.2009 02:56 15,4 C 9,6 C 0,0 UV-I 0,0 C 65 % 95 % 0 % 982,3 hPa 0,0 l/m 0,5 km/h (0 Bft) 0 min 0,0 km/h (0 Bft)
04.11.2009 02:58 15,4 C 9,6 C 0,0 UV-I 0,0 C 65 % 95 % 0 % 982,3 hPa 0,0 l/m 0,2 km/h (0 Bft) 0 min 0,0 km/h (0 Bft)
04.11.2009 03:00 15,4 C 9,6 C 0,0 UV-I 0,0 C 65 % 95 % 0 % 982,3 hPa 0,2 l/m 0,2 km/h (0 Bft) 0 min 0,0 km/h (0 Bft)
04.11.2009 03:02 15,4 C 9,6 C 0,0 UV-I 0,0 C 65 % 95 % 0 % 982,3 hPa 0,0 l/m 0,2 km/h (0 Bft) 0 min 0,0 km/h (0 Bft)
04.11.2009 03:04 15,4 C 9,6 C 0,0 UV-I 0,0 C 65 % 95 % 0 % 982,3 hPa 0,0 l/m 0,2 km/h (0 Bft) 0 min 0,0 km/h (0 Bft)
04.11.2009 03:06 15,4 C 9,6 C 0,0 UV-I 0,0 C 65 % 95 % 0 % 982,3 hPa 0,2 l/m 0,5 km/h (0 Bft) 0 min 2,6 km/h (1 Bft)
04.11.2009 03:08 15,4 C 9,7 C 0,0 UV-I 0,0 C 65 % 95 % 0 % 982,3 hPa 0,0 l/m 1,0 km/h (0 Bft) 0 min 2,6 km/h (1 Bft)
04.11.2009 03:10 15,4 C 9,7 C 0,0 UV-I 0,0 C 65 % 95 % 0 % 982,3 hPa 0,1 l/m 1,2 km/h (1 Bft) 0 min 3,8 km/h (1 Bft)
04.11.2009 03:12 15,4 C 9,6 C 0,0 UV-I 0,0 C 65 % 95 % 0 % 982,3 hPa 0,2 l/m 1,4 km/h (1 Bft) 0 min 0,0 km/h (0 Bft)
04.11.2009 03:13 15,4 C 9,6 C 0,0 UV-I 0,0 C 65 % 95 % 0 % 982,3 hPa 0,5 l/m 1,9 km/h (1 Bft) 0 min 7,2 km/h (2 Bft)
04.11.2009 03:18 15,4 C 9,6 C 0,0 UV-I 0,0 C 65 % 95 % 0 % 982,6 hPa 0,1 l/m 2,9 km/h (1 Bft) 0 min 3,4 km/h (1 Bft)
04.11.2009 03:19 15,4 C 9,6 C 0,0 UV-I 0,0 C 65 % 95 % 0 % 982,6 hPa 0,0 l/m 2,9 km/h (1 Bft) 0 min 3,4 km/h (1 Bft)
04.11.2009 03:20 15,4 C 9,6 C 0,0 UV-I 0,0 C 65 % 95 % 0 % 982,6 hPa 0,0 l/m 2,9 km/h (1 Bft) 0 min 3,4 km/h (1 Bft)
04.11.2009 03:22 15,4 C 9,7 C 0,0 UV-I 0,0 C 65 % 95 % 0 % 982,6 hPa 0,0 l/m 2,9 km/h (1 Bft) 0 min 3,4 km/h (1 Bft)
04.11.2009 03:24 15,4 C 9,7 C 0,0 UV-I 0,0 C 65 % 95 % 0 % 982,6 hPa 0,0 l/m 2,9 km/h (1 Bft) 0 min 2,4 km/h (1 Bft)
04.11.2009 03:26 15,4 C 9,7 C 0,0 UV-I 0,0 C 65 % 95 % 0 % 982,6 hPa 0,0 l/m 2,6 km/h (1 Bft) 0 min 0,0 km/h (0 Bft)
04.11.2009 03:28 15,4 C 9,7 C 0,0 UV-I 0,0 C 65 % 95 % 0 % 982,6 hPa 0,0 l/m 1,4 km/h (1 Bft) 0 min 0,0 km/h (0 Bft)
04.11.2009 03:30 15,4 C 9,7 C 0,0 UV-I 0,0 C 65 % 95 % 0 % 982,6 hPa 0,0 l/m 1,0 km/h (0 Bft) 0 min 6,0 km/h (2 Bft)
04.11.2009 03:32 15,4 C 9,7 C 0,0 UV-I 0,0 C 65 % 95 % 0 % 982,6 hPa 0,0 l/m 1,0 km/h (0 Bft) 0 min 0,0 km/h (0 Bft)
04.11.2009 03:34 15,4 C 9,7 C 0,0 UV-I 0,0 C 65 % 95 % 0 % 982,6 hPa 0,0 l/m 1,0 km/h (0 Bft) 0 min 2,4 km/h (1 Bft)
04.11.2009 03:36 15,4 C 9,7 C 0,0 UV-I 0,0 C 65 % 95 % 0 % 982,1 hPa 0,0 l/m 1,0 km/h (0 Bft) 0 min 0,0 km/h (0 Bft)
04.11.2009 03:38 15,4 C 9,7 C 0,0 UV-I 0,0 C 65 % 95 % 0 % 982,1 hPa 0,1 l/m 1,0 km/h (0 Bft) 0 min 0,0 km/h (0 Bft)
04.11.2009 03:40 15,4 C 9,7 C 0,0 UV-I 0,0 C 65 % 95 % 0 % 982,1 hPa 0,0 l/m 1,0 km/h (0 Bft) 0 min 0,0 km/h (0 Bft)
04.11.2009 03:42 15,4 C 9,7 C 0,0 UV-I 0,0 C 65 % 95 % 0 % 982,1 hPa 0,0 l/m 0,7 km/h (0 Bft) 0 min 4,8 km/h (1 Bft)
04.11.2009 03:44 15,2 C 9,7 C 0,0 UV-I 0,0 C 65 % 95 % 0 % 982,1 hPa 0,0 l/m 1,0 km/h (0 Bft) 0 min 5,3 km/h (1 Bft)
04.11.2009 03:46 15,4 C 9,7 C 0,0 UV-I 0,0 C 65 % 95 % 0 % 982,1 hPa 0,0 l/m 1,0 km/h (0 Bft) 0 min 3,6 km/h (1 Bft)
04.11.2009 03:48 15,2 C 9,7 C 0,0 UV-I 0,0 C 65 % 95 % 0 % 982,1 hPa 0,0 l/m 1,2 km/h (1 Bft) 0 min 2,4 km/h (1 Bft)
04.11.2009 03:50 15,2 C 9,7 C 0,0 UV-I 0,0 C 65 % 95 % 0 % 982,1 hPa 0,0 l/m 1,4 km/h (1 Bft) 0 min 0,0 km/h (0 Bft)
04.11.2009 03:52 15,2 C 9,7 C 0,0 UV-I 0,0 C 65 % 95 % 0 % 982,1 hPa 0,0 l/m 1,4 km/h (1 Bft) 0 min 7,5 km/h (2 Bft)
04.11.2009 03:54 15,4 C 9,7 C 0,0 UV-I 0,0 C 65 % 95 % 0 % 982,1 hPa 0,0 l/m 1,2 km/h (1 Bft) 0 min 0,0 km/h (0 Bft)
04.11.2009 03:56 15,4 C 9,6 C 0,0 UV-I 0,0 C 65 % 95 % 0 % 982,6 hPa 0,0 l/m 1,4 km/h (1 Bft) 0 min 2,4 km/h (1 Bft)
04.11.2009 03:58 15,2 C 9,6 C 0,0 UV-I 0,0 C 65 % 95 % 0 % 982,6 hPa 0,0 l/m 1,0 km/h (0 Bft) 0 min 2,6 km/h (1 Bft)
04.11.2009 04:00 15,2 C 9,6 C 0,0 UV-I 0,0 C 65 % 95 % 0 % 982,6 hPa 0,0 l/m 1,4 km/h (1 Bft) 0 min 3,6 km/h (1 Bft)
04.11.2009 04:02 15,2 C 9,6 C 0,0 UV-I 0,0 C 65 % 95 % 0 % 982,6 hPa 0,0 l/m 1,7 km/h (1 Bft) 0 min 3,6 km/h (1 Bft)
04.11.2009 04:04 15,2 C 9,7 C 0,0 UV-I 0,0 C 65 % 95 % 0 % 982,6 hPa 0,0 l/m 1,4 km/h (1 Bft) 0 min 0,0 km/h (0 Bft)
04.11.2009 04:06 15,2 C 9,7 C 0,0 UV-I 0,0 C 65 % 95 % 0 % 982,6 hPa 0,0 l/m 1,9 km/h (1 Bft) 0 min 5,1 km/h (1 Bft)
04.11.2009 04:08 15,2 C 9,6 C 0,0 UV-I 0,0 C 65 % 95 % 0 % 982,6 hPa 0,0 l/m 1,9 km/h (1 Bft) 0 min 3,4 km/h (1 Bft)
04.11.2009 04:10 15,2 C 9,6 C 0,0 UV-I 0,0 C 65 % 95 % 0 % 982,6 hPa 0,0 l/m 2,2 km/h (1 Bft) 0 min 7,0 km/h (2 Bft)
04.11.2009 04:13 15,2 C 9,5 C 0,0 UV-I 0,0 C 65 % 94 % 0 % 982,6 hPa 0,0 l/m 2,2 km/h (1 Bft) 0 min 6,5 km/h (2 Bft)
04.11.2009 04:15 15,3 C 9,5 C 0,0 UV-I 0,0 C 65 % 94 % 0 % 982,4 hPa 0,0 l/m 2,6 km/h (1 Bft) 0 min 3,4 km/h (1 Bft)
04.11.2009 04:16 15,3 C 9,5 C 0,0 UV-I 0,0 C 65 % 94 % 0 % 982,4 hPa 0,0 l/m 2,6 km/h (1 Bft) 0 min 3,4 km/h (1 Bft)
04.11.2009 04:18 15,2 C 9,5 C 0,0 UV-I 0,0 C 65 % 94 % 0 % 982,4 hPa 0,0 l/m 2,6 km/h (1 Bft) 0 min 5,1 km/h (1 Bft)
04.11.2009 04:20 15,3 C 9,5 C 0,0 UV-I 0,0 C 65 % 94 % 0 % 982,4 hPa 0,0 l/m 2,6 km/h (1 Bft) 0 min 4,8 km/h (1 Bft)
04.11.2009 04:22 15,3 C 9,5 C 0,0 UV-I 0,0 C 65 % 94 % 0 % 982,4 hPa 0,0 l/m 2,6 km/h (1 Bft) 0 min 10,6 km/h (2 Bft)
04.11.2009 04:24 15,1 C 9,4 C 0,0 UV-I 0,0 C 65 % 94 % 0 % 982,4 hPa 0,0 l/m 2,9 km/h (1 Bft) 0 min 4,1 km/h (1 Bft)
04.11.2009 04:26 15,3 C 9,5 C 0,0 UV-I 0,0 C 65 % 94 % 0 % 982,4 hPa 0,0 l/m 2,4 km/h (1 Bft) 0 min 3,6 km/h (1 Bft)
04.11.2009 04:28 15,1 C 9,5 C 0,0 UV-I 0,0 C 65 % 94 % 0 % 982,4 hPa 0,0 l/m 2,6 km/h (1 Bft) 0 min 3,8 km/h (1 Bft)
04.11.2009 04:30 15,1 C 9,5 C 0,0 UV-I 0,0 C 65 % 94 % 0 % 982,4 hPa 0,0 l/m 2,4 km/h (1 Bft) 0 min 4,1 km/h (1 Bft)
04.11.2009 04:32 15,1 C 9,3 C 0,0 UV-I 0,0 C 65 % 94 % 0 % 982,4 hPa 0,0 l/m 2,2 km/h (1 Bft) 0 min 2,4 km/h (1 Bft)
04.11.2009 04:34 15,1 C 9,3 C 0,0 UV-I 0,0 C 65 % 94 % 0 % 982,4 hPa 0,0 l/m 1,7 km/h (1 Bft) 0 min 3,4 km/h (1 Bft)
04.11.2009 04:36 15,1 C 9,3 C 0,0 UV-I 0,0 C 65 % 94 % 0 % 982,8 hPa 0,0 l/m 1,9 km/h (1 Bft) 0 min 3,6 km/h (1 Bft)
04.11.2009 04:38 15,1 C 9,3 C 0,0 UV-I 0,0 C 65 % 94 % 0 % 982,8 hPa 0,0 l/m 1,7 km/h (1 Bft) 0 min 0,0 km/h (0 Bft)
04.11.2009 04:40 15,2 C 9,3 C 0,0 UV-I 0,0 C 65 % 94 % 0 % 982,8 hPa 0,0 l/m 1,4 km/h (1 Bft) 0 min 0,0 km/h (0 Bft)
04.11.2009 04:42 15,2 C 9,2 C 0,0 UV-I 0,0 C 65 % 94 % 0 % 982,8 hPa 0,0 l/m 1,7 km/h (1 Bft) 0 min 3,6 km/h (1 Bft)
04.11.2009 04:44 15,2 C 9,2 C 0,0 UV-I 0,0 C 65 % 94 % 0 % 982,8 hPa 0,0 l/m 2,2 km/h (1 Bft) 0 min 6,0 km/h (2 Bft)
04.11.2009 04:46 15,2 C 9,2 C 0,0 UV-I 0,0 C 65 % 94 % 0 % 982,8 hPa 0,0 l/m 2,4 km/h (1 Bft) 0 min 7,7 km/h (2 Bft)
04.11.2009 04:48 15,2 C 9,2 C 0,0 UV-I 0,0 C 65 % 94 % 0 % 982,8 hPa 0,0 l/m 2,4 km/h (1 Bft) 0 min 2,4 km/h (1 Bft)
04.11.2009 04:50 15,2 C 9,2 C 0,0 UV-I 0,0 C 65 % 94 % 0 % 982,8 hPa 0,0 l/m 2,2 km/h (1 Bft) 0 min 3,1 km/h (1 Bft)
04.11.2009 04:52 15,2 C 9,2 C 0,0 UV-I 0,0 C 65 % 94 % 0 % 982,8 hPa 0,0 l/m 2,4 km/h (1 Bft) 0 min 2,4 km/h (1 Bft)
04.11.2009 04:54 15,2 C 9,2 C 0,0 UV-I 0,0 C 65 % 94 % 0 % 982,8 hPa 0,0 l/m 2,2 km/h (1 Bft) 0 min 0,0 km/h (0 Bft)
04.11.2009 04:56 15,1 C 9,3 C 0,0 UV-I 0,0 C 65 % 94 % 0 % 982,4 hPa 0,0 l/m 2,2 km/h (1 Bft) 0 min 8,9 km/h (2 Bft)
04.11.2009 04:58 15,1 C 9,3 C 0,0 UV-I 0,0 C 65 % 94 % 0 % 982,4 hPa 0,0 l/m 1,9 km/h (1 Bft) 0 min 3,4 km/h (1 Bft)
04.11.2009 05:00 15,1 C 9,2 C 0,0 UV-I 0,0 C 65 % 94 % 0 % 982,4 hPa 0,0 l/m 2,2 km/h (1 Bft) 0 min 2,9 km/h (1 Bft)
04.11.2009 05:02 15,1 C 9,2 C 0,0 UV-I 0,0 C 65 % 94 % 0 % 982,4 hPa 0,0 l/m 2,2 km/h (1 Bft) 0 min 0,0 km/h (0 Bft)
04.11.2009 05:04 15,1 C 9,2 C 0,0 UV-I 0,0 C 65 % 94 % 0 % 982,4 hPa 0,0 l/m 1,9 km/h (1 Bft) 0 min 2,4 km/h (1 Bft)
04.11.2009 05:06 15,1 C 9,2 C 0,0 UV-I 0,0 C 65 % 94 % 0 % 982,4 hPa 0,0 l/m 2,2 km/h (1 Bft) 0 min 6,5 km/h (2 Bft)
04.11.2009 05:08 15,1 C 9,2 C 0,0 UV-I 0,0 C 65 % 94 % 0 % 982,4 hPa 0,0 l/m 1,7 km/h (1 Bft) 0 min 2,9 km/h (1 Bft)
04.11.2009 05:10 15,1 C 9,2 C 0,0 UV-I 0,0 C 65 % 94 % 0 % 982,4 hPa 0,0 l/m 1,7 km/h (1 Bft) 0 min 6,0 km/h (2 Bft)
04.11.2009 05:12 14,9 C 9,1 C 0,0 UV-I 0,0 C 65 % 94 % 0 % 982,4 hPa 0,0 l/m 1,9 km/h (1 Bft) 0 min 6,7 km/h (2 Bft)
04.11.2009 05:14 15,1 C 9,1 C 0,0 UV-I 0,0 C 65 % 94 % 0 % 982,4 hPa 0,0 l/m 3,1 km/h (1 Bft) 0 min 5,8 km/h (2 Bft)
04.11.2009 05:16 14,9 C 9,1 C 0,0 UV-I 0,0 C 65 % 94 % 0 % 982,8 hPa 0,0 l/m 3,4 km/h (1 Bft) 0 min 5,3 km/h (1 Bft)
04.11.2009 05:18 14,9 C 9,1 C 0,0 UV-I 0,0 C 65 % 94 % 0 % 982,8 hPa 0,0 l/m 3,8 km/h (1 Bft) 0 min 7,9 km/h (2 Bft)
04.11.2009 05:20 14,9 C 9,1 C 0,0 UV-I 0,0 C 65 % 94 % 0 % 982,8 hPa 0,0 l/m 4,3 km/h (1 Bft) 0 min 17,1 km/h (3 Bft)
04.11.2009 05:22 14,9 C 9,1 C 0,0 UV-I 0,0 C 65 % 94 % 0 % 982,8 hPa 0,0 l/m 4,8 km/h (1 Bft) 0 min 8,2 km/h (2 Bft)
04.11.2009 05:24 15,0 C 9,1 C 0,0 UV-I 0,0 C 65 % 94 % 0 % 982,8 hPa 0,0 l/m 4,3 km/h (1 Bft) 0 min 4,8 km/h (1 Bft)
04.11.2009 05:26 15,0 C 9,1 C 0,0 UV-I 0,0 C 65 % 94 % 0 % 982,8 hPa 0,0 l/m 4,6 km/h (1 Bft) 0 min 3,4 km/h (1 Bft)
04.11.2009 05:28 15,0 C 9,1 C 0,0 UV-I 0,0 C 65 % 94 % 0 % 982,8 hPa 0,0 l/m 4,8 km/h (1 Bft) 0 min 7,9 km/h (2 Bft)
04.11.2009 05:30 15,0 C 9,1 C 0,0 UV-I 0,0 C 65 % 94 % 0 % 982,8 hPa 0,0 l/m 5,1 km/h (1 Bft) 0 min 9,9 km/h (2 Bft)
04.11.2009 05:32 15,0 C 9,1 C 0,0 UV-I 0,0 C 65 % 94 % 0 % 982,8 hPa 0,0 l/m 5,1 km/h (1 Bft) 0 min 5,5 km/h (1 Bft)
04.11.2009 05:34 15,0 C 9,1 C 0,0 UV-I 0,0 C 65 % 94 % 0 % 982,8 hPa 0,0 l/m 5,1 km/h (1 Bft) 0 min 8,7 km/h (2 Bft)
04.11.2009 05:36 15,0 C 9,1 C 0,0 UV-I 0,0 C 65 % 94 % 0 % 982,6 hPa 0,0 l/m 4,8 km/h (1 Bft) 0 min 5,1 km/h (1 Bft)
04.11.2009 05:38 14,8 C 9,1 C 0,0 UV-I 0,0 C 65 % 94 % 0 % 982,6 hPa 0,0 l/m 4,3 km/h (1 Bft) 0 min 4,6 km/h (1 Bft)
04.11.2009 05:40 14,8 C 9,0 C 0,0 UV-I 0,0 C 65 % 94 % 0 % 982,6 hPa 0,0 l/m 4,1 km/h (1 Bft) 0 min 2,9 km/h (1 Bft)
04.11.2009 05:42 14,8 C 9,1 C 0,0 UV-I 0,0 C 65 % 94 % 0 % 982,6 hPa 0,0 l/m 3,6 km/h (1 Bft) 0 min 5,3 km/h (1 Bft)
04.11.2009 05:44 14,8 C 9,1 C 0,0 UV-I 0,0 C 65 % 94 % 0 % 982,6 hPa 0,0 l/m 3,6 km/h (1 Bft) 0 min 3,4 km/h (1 Bft)
04.11.2009 05:46 14,8 C 8,9 C 0,0 UV-I 0,0 C 65 % 94 % 0 % 982,6 hPa 0,0 l/m 3,6 km/h (1 Bft) 0 min 4,6 km/h (1 Bft)
04.11.2009 05:48 14,8 C 8,9 C 0,0 UV-I 0,0 C 64 % 94 % 0 % 982,6 hPa 0,0 l/m 3,4 km/h (1 Bft) 0 min 5,3 km/h (1 Bft)
04.11.2009 05:50 14,9 C 8,9 C 0,0 UV-I 0,0 C 64 % 94 % 0 % 982,6 hPa 0,0 l/m 2,9 km/h (1 Bft) 0 min 2,9 km/h (1 Bft)
04.11.2009 05:52 14,9 C 8,9 C 0,0 UV-I 0,0 C 64 % 94 % 0 % 982,6 hPa 0,0 l/m 2,6 km/h (1 Bft) 0 min 3,1 km/h (1 Bft)
04.11.2009 05:54 14,9 C 8,8 C 0,0 UV-I 0,0 C 64 % 94 % 0 % 982,6 hPa 0,0 l/m 2,2 km/h (1 Bft) 0 min 7,0 km/h (2 Bft)
04.11.2009 05:56 14,9 C 8,8 C 0,0 UV-I 0,0 C 64 % 94 % 0 % 983,0 hPa 0,0 l/m 1,9 km/h (1 Bft) 0 min 4,8 km/h (1 Bft)
04.11.2009 05:58 14,8 C 8,8 C 0,0 UV-I 0,0 C 64 % 94 % 0 % 983,0 hPa 0,0 l/m 1,4 km/h (1 Bft) 0 min 3,8 km/h (1 Bft)
04.11.2009 06:00 14,9 C 8,8 C 0,0 UV-I 0,0 C 64 % 94 % 0 % 983,0 hPa 0,0 l/m 1,2 km/h (1 Bft) 0 min 0,0 km/h (0 Bft)
04.11.2009 06:02 14,9 C 8,8 C 0,0 UV-I 0,0 C 64 % 94 % 0 % 983,0 hPa 0,0 l/m 1,2 km/h (1 Bft) 0 min 0,0 km/h (0 Bft)
04.11.2009 06:04 14,8 C 8,8 C 0,0 UV-I 0,0 C 64 % 94 % 0 % 983,0 hPa 0,0 l/m 1,2 km/h (1 Bft) 0 min 0,0 km/h (0 Bft)
04.11.2009 06:06 14,8 C 8,8 C 0,0 UV-I 0,0 C 64 % 94 % 0 % 983,0 hPa 0,0 l/m 1,2 km/h (1 Bft) 0 min 0,0 km/h (0 Bft)
04.11.2009 06:08 14,8 C 8,8 C 0,0 UV-I 0,0 C 64 % 94 % 0 % 983,0 hPa 0,0 l/m 1,2 km/h (1 Bft) 0 min 0,0 km/h (0 Bft)
04.11.2009 06:10 14,8 C 8,8 C 0,0 UV-I 0,0 C 64 % 94 % 0 % 983,0 hPa 0,0 l/m 1,2 km/h (1 Bft) 0 min 0,0 km/h (0 Bft)
04.11.2009 06:12 14,8 C 8,8 C 0,0 UV-I 0,0 C 64 % 94 % 0 % 983,0 hPa 0,0 l/m 1,2 km/h (1 Bft) 0 min 0,0 km/h (0 Bft)
04.11.2009 06:14 14,8 C 8,5 C 0,0 UV-I 0,0 C 64 % 94 % 0 % 983,0 hPa 0,0 l/m 1,0 km/h (0 Bft) 0 min 0,0 km/h (0 Bft)
04.11.2009 06:16 14,8 C 8,5 C 0,0 UV-I 0,0 C 64 % 94 % 0 % 982,8 hPa 0,0 l/m 1,0 km/h (0 Bft) 0 min 0,0 km/h (0 Bft)
04.11.2009 06:18 14,8 C 8,4 C 0,0 UV-I 0,0 C 64 % 94 % 0 % 982,8 hPa 0,0 l/m 0,7 km/h (0 Bft) 0 min 2,4 km/h (1 Bft)
04.11.2009 06:20 14,8 C 8,4 C 0,0 UV-I 0,0 C 64 % 94 % 0 % 982,8 hPa 0,0 l/m 0,7 km/h (0 Bft) 0 min 2,6 km/h (1 Bft)
04.11.2009 06:22 14,8 C 8,5 C 0,0 UV-I 0,0 C 64 % 94 % 0 % 982,8 hPa 0,0 l/m 0,7 km/h (0 Bft) 0 min 0,0 km/h (0 Bft)
04.11.2009 06:24 14,8 C 8,4 C 0,0 UV-I 0,0 C 64 % 94 % 0 % 982,8 hPa 0,0 l/m 0,5 km/h (0 Bft) 0 min 0,0 km/h (0 Bft)
04.11.2009 06:26 14,8 C 8,3 C 0,0 UV-I 0,0 C 64 % 94 % 0 % 982,8 hPa 0,0 l/m 0,7 km/h (0 Bft) 0 min 2,6 km/h (1 Bft)
04.11.2009 06:28 14,8 C 8,3 C 0,0 UV-I 0,0 C 64 % 94 % 0 % 982,8 hPa 0,0 l/m 0,5 km/h (0 Bft) 0 min 0,0 km/h (0 Bft)
04.11.2009 06:30 14,8 C 8,3 C 0,0 UV-I 0,0 C 64 % 94 % 0 % 982,8 hPa 0,0 l/m 1,0 km/h (0 Bft) 0 min 0,0 km/h (0 Bft)
04.11.2009 06:32 14,8 C 8,2 C 0,0 UV-I 0,0 C 64 % 93 % 0 % 982,8 hPa 0,0 l/m 1,0 km/h (0 Bft) 0 min 2,9 km/h (1 Bft)
04.11.2009 06:34 14,8 C 8,3 C 0,0 UV-I 0,0 C 64 % 93 % 0 % 982,8 hPa 0,0 l/m 1,0 km/h (0 Bft) 0 min 3,6 km/h (1 Bft)
04.11.2009 06:36 14,8 C 8,1 C 0,0 UV-I 0,0 C 64 % 93 % 0 % 983,2 hPa 0,0 l/m 1,0 km/h (0 Bft) 0 min 0,0 km/h (0 Bft)
04.11.2009 06:38 14,8 C 8,1 C 0,0 UV-I 0,0 C 64 % 93 % 0 % 983,2 hPa 0,0 l/m 0,7 km/h (0 Bft) 0 min 0,0 km/h (0 Bft)
04.11.2009 06:40 14,8 C 8,1 C 0,0 UV-I 0,0 C 64 % 93 % 0 % 983,2 hPa 0,0 l/m 0,5 km/h (0 Bft) 0 min 0,0 km/h (0 Bft)
04.11.2009 06:42 14,6 C 8,0 C 0,0 UV-I 0,0 C 63 % 93 % 0 % 983,2 hPa 0,0 l/m 0,5 km/h (0 Bft) 0 min 0,0 km/h (0 Bft)
04.11.2009 06:44 14,6 C 8,0 C 0,0 UV-I 0,0 C 63 % 93 % 0 % 983,2 hPa 0,0 l/m 0,5 km/h (0 Bft) 0 min 3,4 km/h (1 Bft)
04.11.2009 06:46 14,6 C 8,1 C 0,0 UV-I 0,0 C 63 % 93 % 0 % 983,2 hPa 0,0 l/m 0,5 km/h (0 Bft) 0 min 0,0 km/h (0 Bft)
04.11.2009 06:48 14,7 C 8,0 C 0,0 UV-I 0,0 C 63 % 93 % 0 % 983,2 hPa 0,0 l/m 0,7 km/h (0 Bft) 0 min 2,6 km/h (1 Bft)
04.11.2009 06:50 14,7 C 7,9 C 0,0 UV-I 0,0 C 63 % 93 % 0 % 983,2 hPa 0,0 l/m 0,7 km/h (0 Bft) 0 min 0,0 km/h (0 Bft)
04.11.2009 06:52 14,7 C 7,9 C 0,0 UV-I 0,0 C 63 % 93 % 0 % 983,2 hPa 0,0 l/m 1,0 km/h (0 Bft) 0 min 3,4 km/h (1 Bft)
04.11.2009 06:54 14,6 C 7,8 C 0,0 UV-I 0,0 C 63 % 93 % 0 % 983,2 hPa 0,0 l/m 1,0 km/h (0 Bft) 0 min 2,6 km/h (1 Bft)
04.11.2009 06:56 14,6 C 7,9 C 0,0 UV-I 0,0 C 63 % 93 % 0 % 983,1 hPa 0,0 l/m 1,0 km/h (0 Bft) 0 min 3,4 km/h (1 Bft)
04.11.2009 06:58 14,6 C 7,9 C 0,0 UV-I 0,0 C 63 % 93 % 0 % 983,1 hPa 0,0 l/m 1,4 km/h (1 Bft) 0 min 4,1 km/h (1 Bft)
04.11.2009 07:00 14,6 C 7,9 C 0,0 UV-I 0,0 C 63 % 93 % 0 % 983,1 hPa 0,0 l/m 1,4 km/h (1 Bft) 0 min 2,9 km/h (1 Bft)
04.11.2009 07:02 14,6 C 7,7 C 0,0 UV-I 0,0 C 63 % 93 % 0 % 983,1 hPa 0,0 l/m 1,7 km/h (1 Bft) 0 min 2,6 km/h (1 Bft)
04.11.2009 07:04 14,6 C 7,7 C 0,0 UV-I 0,0 C 63 % 93 % 0 % 983,1 hPa 0,0 l/m 1,9 km/h (1 Bft) 0 min 4,6 km/h (1 Bft)
04.11.2009 07:06 14,6 C 7,7 C 0,0 UV-I 0,0 C 63 % 93 % 0 % 983,1 hPa 0,0 l/m 1,9 km/h (1 Bft) 0 min 3,6 km/h (1 Bft)
04.11.2009 07:08 14,6 C 7,7 C 0,0 UV-I 0,0 C 63 % 93 % 0 % 983,1 hPa 0,0 l/m 1,7 km/h (1 Bft) 0 min 0,0 km/h (0 Bft)
04.11.2009 07:10 14,6 C 7,6 C 0,0 UV-I 0,0 C 63 % 93 % 0 % 983,1 hPa 0,0 l/m 1,7 km/h (1 Bft) 0 min 3,6 km/h (1 Bft)
04.11.2009 07:12 14,6 C 7,7 C 0,0 UV-I 0,0 C 63 % 93 % 0 % 983,1 hPa 0,0 l/m 1,7 km/h (1 Bft) 0 min 0,0 km/h (0 Bft)
04.11.2009 07:14 14,6 C 7,6 C 0,0 UV-I 0,0 C 63 % 93 % 0 % 983,1 hPa 0,0 l/m 1,4 km/h (1 Bft) 0 min 3,6 km/h (1 Bft)
04.11.2009 07:16 14,6 C 7,6 C 0,0 UV-I 0,0 C 63 % 93 % 0 % 983,3 hPa 0,0 l/m 1,4 km/h (1 Bft) 0 min 3,6 km/h (1 Bft)
04.11.2009 07:18 14,6 C 7,6 C 0,0 UV-I 0,0 C 63 % 93 % 0 % 983,3 hPa 0,0 l/m 1,2 km/h (1 Bft) 0 min 2,4 km/h (1 Bft)
04.11.2009 07:20 14,6 C 7,6 C 0,0 UV-I 0,0 C 63 % 93 % 0 % 983,3 hPa 0,0 l/m 1,2 km/h (1 Bft) 0 min 3,8 km/h (1 Bft)
04.11.2009 07:22 14,6 C 7,6 C 0,0 UV-I 0,0 C 63 % 94 % 0 % 983,3 hPa 0,0 l/m 1,2 km/h (1 Bft) 0 min 4,6 km/h (1 Bft)
04.11.2009 07:24 14,4 C 7,6 C 0,0 UV-I 0,0 C 63 % 94 % 0 % 983,3 hPa 0,0 l/m 1,7 km/h (1 Bft) 0 min 6,3 km/h (2 Bft)
04.11.2009 07:26 14,6 C 7,6 C 0,0 UV-I 0,0 C 63 % 94 % 0 % 983,3 hPa 0,0 l/m 1,7 km/h (1 Bft) 0 min 3,4 km/h (1 Bft)
04.11.2009 07:28 14,4 C 7,6 C 0,0 UV-I 0,0 C 63 % 94 % 0 % 983,3 hPa 0,0 l/m 1,9 km/h (1 Bft) 0 min 0,0 km/h (0 Bft)
04.11.2009 07:30 14,4 C 7,6 C 0,0 UV-I 0,0 C 63 % 94 % 0 % 983,3 hPa 0,0 l/m 2,2 km/h (1 Bft) 0 min 8,2 km/h (2 Bft)
04.11.2009 07:34 14,5 C 7,6 C 0,0 UV-I 0,0 C 63 % 94 % 0 % 983,3 hPa 0,0 l/m 2,4 km/h (1 Bft) 0 min 7,2 km/h (2 Bft)
04.11.2009 07:36 14,5 C 7,6 C 0,0 UV-I 0,0 C 63 % 94 % 0 % 983,5 hPa 0,0 l/m 2,4 km/h (1 Bft) 0 min 4,1 km/h (1 Bft)
04.11.2009 07:38 14,3 C 7,6 C 0,0 UV-I 0,0 C 63 % 94 % 0 % 983,5 hPa 0,0 l/m 2,2 km/h (1 Bft) 0 min 5,3 km/h (1 Bft)
04.11.2009 07:40 14,3 C 7,6 C 0,0 UV-I 0,0 C 63 % 94 % 0 % 983,5 hPa 0,0 l/m 2,9 km/h (1 Bft) 0 min 7,9 km/h (2 Bft)
04.11.2009 07:42 14,3 C 7,6 C 0,0 UV-I 0,0 C 63 % 94 % 0 % 983,5 hPa 0,0 l/m 2,9 km/h (1 Bft) 0 min 6,3 km/h (2 Bft)
04.11.2009 07:44 14,3 C 7,6 C 0,0 UV-I 0,0 C 63 % 94 % 0 % 983,5 hPa 0,0 l/m 3,1 km/h (1 Bft) 0 min 5,8 km/h (2 Bft)
04.11.2009 07:46 14,4 C 7,7 C 0,0 UV-I 0,0 C 63 % 94 % 0 % 983,5 hPa 0,0 l/m 3,1 km/h (1 Bft) 0 min 2,6 km/h (1 Bft)
04.11.2009 07:48 14,4 C 7,7 C 0,0 UV-I 0,0 C 63 % 94 % 0 % 983,5 hPa 0,0 l/m 3,8 km/h (1 Bft) 0 min 5,8 km/h (2 Bft)
04.11.2009 07:50 14,4 C 7,7 C 0,0 UV-I 0,0 C 63 % 94 % 0 % 983,5 hPa 0,0 l/m 3,8 km/h (1 Bft) 0 min 5,1 km/h (1 Bft)
04.11.2009 07:52 14,4 C 7,7 C 0,0 UV-I 0,0 C 63 % 94 % 0 % 983,5 hPa 0,0 l/m 3,8 km/h (1 Bft) 0 min 8,2 km/h (2 Bft)
04.11.2009 07:54 14,4 C 7,7 C 0,0 UV-I 0,0 C 63 % 94 % 0 % 983,5 hPa 0,0 l/m 3,6 km/h (1 Bft) 0 min 4,3 km/h (1 Bft)
04.11.2009 07:56 14,4 C 7,9 C 0,0 UV-I 0,0 C 63 % 94 % 0 % 983,8 hPa 0,0 l/m 3,4 km/h (1 Bft) 0 min 3,8 km/h (1 Bft)
04.11.2009 07:58 14,4 C 7,8 C 0,0 UV-I 0,0 C 63 % 94 % 0 % 983,8 hPa 0,0 l/m 3,4 km/h (1 Bft) 0 min 4,6 km/h (1 Bft)
04.11.2009 08:00 14,4 C 7,9 C 0,0 UV-I 0,0 C 63 % 94 % 0 % 983,8 hPa 0,0 l/m 3,1 km/h (1 Bft) 0 min 6,0 km/h (2 Bft)
04.11.2009 08:02 14,4 C 7,8 C 0,0 UV-I 0,0 C 63 % 94 % 0 % 983,8 hPa 0,0 l/m 2,9 km/h (1 Bft) 0 min 5,1 km/h (1 Bft)
04.11.2009 08:04 14,4 C 7,8 C 0,0 UV-I 0,0 C 63 % 94 % 0 % 983,8 hPa 0,0 l/m 2,9 km/h (1 Bft) 0 min 2,6 km/h (1 Bft)
04.11.2009 08:06 14,4 C 7,8 C 0,0 UV-I 0,0 C 63 % 94 % 0 % 983,8 hPa 0,0 l/m 3,1 km/h (1 Bft) 0 min 7,2 km/h (2 Bft)
04.11.2009 08:08 14,4 C 7,8 C 0,0 UV-I 0,0 C 63 % 94 % 0 % 983,8 hPa 0,0 l/m 3,6 km/h (1 Bft) 0 min 5,3 km/h (1 Bft)
04.11.2009 08:10 14,4 C 7,9 C 0,0 UV-I 0,0 C 63 % 94 % 0 % 983,8 hPa 0,0 l/m 3,6 km/h (1 Bft) 0 min 4,3 km/h (1 Bft)
04.11.2009 08:12 14,4 C 7,9 C 0,0 UV-I 0,0 C 63 % 94 % 0 % 983,8 hPa 0,0 l/m 3,8 km/h (1 Bft) 0 min 5,1 km/h (1 Bft)
04.11.2009 08:14 14,4 C 7,9 C 0,0 UV-I 0,0 C 63 % 94 % 0 % 983,8 hPa 0,0 l/m 3,8 km/h (1 Bft) 0 min 6,3 km/h (2 Bft)
04.11.2009 08:16 14,4 C 7,9 C 0,0 UV-I 0,0 C 63 % 94 % 0 % 984,4 hPa 0,0 l/m 4,1 km/h (1 Bft) 0 min 9,9 km/h (2 Bft)
04.11.2009 08:18 14,4 C 7,9 C 0,0 UV-I 0,0 C 63 % 94 % 0 % 984,4 hPa 0,0 l/m 4,1 km/h (1 Bft) 0 min 4,8 km/h (1 Bft)
04.11.2009 08:20 14,4 C 7,9 C 0,0 UV-I 0,0 C 63 % 93 % 0 % 984,4 hPa 0,0 l/m 3,6 km/h (1 Bft) 0 min 7,2 km/h (2 Bft)
04.11.2009 08:22 14,4 C 7,9 C 0,0 UV-I 0,0 C 63 % 93 % 0 % 984,4 hPa 0,0 l/m 3,6 km/h (1 Bft) 0 min 3,6 km/h (1 Bft)
04.11.2009 08:24 14,4 C 7,9 C 0,0 UV-I 0,0 C 63 % 93 % 0 % 984,4 hPa 0,0 l/m 3,8 km/h (1 Bft) 0 min 5,8 km/h (2 Bft)
04.11.2009 08:26 14,4 C 8,0 C 0,0 UV-I 0,0 C 63 % 93 % 0 % 984,4 hPa 0,0 l/m 3,6 km/h (1 Bft) 0 min 5,8 km/h (2 Bft)
04.11.2009 08:28 14,4 C 8,0 C 0,0 UV-I 0,0 C 63 % 93 % 0 % 984,4 hPa 0,0 l/m 3,4 km/h (1 Bft) 0 min 3,1 km/h (1 Bft)
04.11.2009 08:30 14,4 C 8,0 C 0,0 UV-I 0,0 C 63 % 93 % 0 % 984,4 hPa 0,0 l/m 3,6 km/h (1 Bft) 0 min 2,4 km/h (1 Bft)
04.11.2009 08:32 14,4 C 8,0 C 0,0 UV-I 0,0 C 63 % 93 % 0 % 984,4 hPa 0,0 l/m 3,6 km/h (1 Bft) 0 min 5,8 km/h (2 Bft)
04.11.2009 08:34 14,4 C 8,0 C 0,0 UV-I 0,0 C 63 % 93 % 0 % 984,4 hPa 0,0 l/m 4,1 km/h (1 Bft) 0 min 6,0 km/h (2 Bft)
04.11.2009 08:36 14,4 C 8,0 C 0,0 UV-I 0,0 C 63 % 93 % 0 % 984,7 hPa 0,0 l/m 4,1 km/h (1 Bft) 0 min 4,6 km/h (1 Bft)
04.11.2009 08:38 14,4 C 8,0 C 0,0 UV-I 0,0 C 63 % 93 % 0 % 984,7 hPa 0,0 l/m 4,3 km/h (1 Bft) 0 min 8,9 km/h (2 Bft)
04.11.2009 08:40 14,4 C 8,0 C 0,0 UV-I 0,0 C 63 % 93 % 0 % 984,7 hPa 0,0 l/m 4,1 km/h (1 Bft) 0 min 3,6 km/h (1 Bft)
04.11.2009 08:42 14,4 C 8,1 C 0,0 UV-I 0,0 C 63 % 93 % 0 % 984,7 hPa 0,0 l/m 4,1 km/h (1 Bft) 0 min 5,3 km/h (1 Bft)
04.11.2009 08:44 14,4 C 8,1 C 0,0 UV-I 0,0 C 63 % 93 % 0 % 984,7 hPa 0,0 l/m 4,3 km/h (1 Bft) 0 min 6,5 km/h (2 Bft)
04.11.2009 08:46 14,2 C 8,1 C 0,0 UV-I 0,0 C 63 % 93 % 0 % 984,7 hPa 0,1 l/m 4,1 km/h (1 Bft) 0 min 5,8 km/h (2 Bft)
04.11.2009 08:50 14,2 C 8,0 C 0,0 UV-I 0,0 C 63 % 93 % 0 % 984,7 hPa 0,0 l/m 3,8 km/h (1 Bft) 0 min 6,3 km/h (2 Bft)
04.11.2009 08:52 14,2 C 8,1 C 0,0 UV-I 0,0 C 63 % 93 % 0 % 984,7 hPa 0,0 l/m 3,8 km/h (1 Bft) 0 min 2,6 km/h (1 Bft)
04.11.2009 08:54 14,3 C 8,0 C 0,0 UV-I 0,0 C 63 % 93 % 0 % 984,7 hPa 0,0 l/m 3,6 km/h (1 Bft) 0 min 7,0 km/h (2 Bft)
04.11.2009 08:56 14,2 C 8,0 C 0,0 UV-I 0,0 C 63 % 93 % 0 % 984,8 hPa 0,0 l/m 3,6 km/h (1 Bft) 0 min 6,3 km/h (2 Bft)
04.11.2009 08:58 14,3 C 8,1 C 0,0 UV-I 0,0 C 63 % 93 % 0 % 984,8 hPa 0,0 l/m 3,4 km/h (1 Bft) 0 min 5,8 km/h (2 Bft)
04.11.2009 09:00 14,3 C 8,1 C 0,0 UV-I 0,0 C 63 % 94 % 0 % 984,8 hPa 0,1 l/m 4,1 km/h (1 Bft) 0 min 4,8 km/h (1 Bft)
04.11.2009 09:02 14,2 C 8,3 C 0,0 UV-I 0,0 C 63 % 94 % 0 % 984,8 hPa 0,0 l/m 3,8 km/h (1 Bft) 0 min 7,7 km/h (2 Bft)
04.11.2009 09:04 14,3 C 8,1 C 0,0 UV-I 0,0 C 63 % 93 % 0 % 984,8 hPa 0,0 l/m 4,1 km/h (1 Bft) 0 min 5,3 km/h (1 Bft)
04.11.2009 09:06 14,3 C 8,1 C 0,0 UV-I 0,0 C 63 % 93 % 0 % 984,8 hPa 0,0 l/m 4,1 km/h (1 Bft) 0 min 7,2 km/h (2 Bft)
04.11.2009 09:08 14,2 C 8,1 C 0,0 UV-I 0,0 C 63 % 93 % 0 % 984,8 hPa 0,0 l/m 4,6 km/h (1 Bft) 0 min 8,7 km/h (2 Bft)
04.11.2009 09:10 14,2 C 8,1 C 0,0 UV-I 0,0 C 63 % 93 % 0 % 984,8 hPa 0,0 l/m 4,1 km/h (1 Bft) 0 min 3,1 km/h (1 Bft)
04.11.2009 09:12 14,2 C 8,1 C 0,0 UV-I 0,0 C 63 % 93 % 0 % 984,8 hPa 0,1 l/m 4,1 km/h (1 Bft) 0 min 3,6 km/h (1 Bft)
04.11.2009 09:14 14,4 C 8,1 C 0,0 UV-I 0,0 C 64 % 93 % 0 % 984,8 hPa 0,0 l/m 3,8 km/h (1 Bft) 0 min 4,8 km/h (1 Bft)
04.11.2009 09:16 14,2 C 8,1 C 0,0 UV-I 0,0 C 63 % 93 % 0 % 985,1 hPa 0,0 l/m 3,6 km/h (1 Bft) 0 min 3,8 km/h (1 Bft)
04.11.2009 09:18 14,4 C 8,1 C 0,0 UV-I 0,0 C 64 % 93 % 0 % 985,1 hPa 0,0 l/m 3,4 km/h (1 Bft) 0 min 4,1 km/h (1 Bft)
04.11.2009 09:20 14,4 C 8,2 C 0,1 UV-I 0,0 C 64 % 93 % 0 % 985,1 hPa 0,0 l/m 3,4 km/h (1 Bft) 0 min 8,4 km/h (2 Bft)
04.11.2009 09:22 14,4 C 8,2 C 0,1 UV-I 0,0 C 64 % 93 % 0 % 985,1 hPa 0,0 l/m 4,1 km/h (1 Bft) 0 min 7,2 km/h (2 Bft)
04.11.2009 09:24 14,4 C 8,1 C 0,1 UV-I 0,0 C 64 % 93 % 0 % 985,1 hPa 0,0 l/m 4,3 km/h (1 Bft) 0 min 6,7 km/h (2 Bft)
04.11.2009 09:26 14,4 C 8,3 C 0,1 UV-I 0,0 C 64 % 94 % 0 % 985,1 hPa 0,0 l/m 4,6 km/h (1 Bft) 0 min 3,6 km/h (1 Bft)
04.11.2009 09:28 14,4 C 8,2 C 0,1 UV-I 0,0 C 64 % 93 % 0 % 985,1 hPa 0,0 l/m 5,3 km/h (1 Bft) 0 min 5,3 km/h (1 Bft)
04.11.2009 09:30 14,4 C 8,2 C 0,2 UV-I 0,0 C 64 % 93 % 0 % 985,1 hPa 0,0 l/m 5,5 km/h (1 Bft) 0 min 5,3 km/h (1 Bft)
04.11.2009 09:32 14,4 C 8,3 C 0,2 UV-I 0,0 C 64 % 94 % 0 % 985,1 hPa 0,0 l/m 5,8 km/h (2 Bft) 0 min 6,0 km/h (2 Bft)
04.11.2009 09:34 14,4 C 8,3 C 0,2 UV-I 0,0 C 64 % 94 % 0 % 985,1 hPa 0,0 l/m 5,5 km/h (1 Bft) 0 min 10,3 km/h (2 Bft)
04.11.2009 09:36 14,4 C 8,3 C 0,5 UV-I 0,0 C 64 % 93 % 0 % 985,4 hPa 0,0 l/m 5,8 km/h (2 Bft) 0 min 4,8 km/h (1 Bft)
04.11.2009 09:38 14,2 C 8,2 C 0,5 UV-I 0,0 C 63 % 93 % 0 % 985,4 hPa 0,0 l/m 5,3 km/h (1 Bft) 0 min 0,0 km/h (0 Bft)
04.11.2009 09:40 14,2 C 8,3 C 0,5 UV-I 0,0 C 63 % 94 % 0 % 985,4 hPa 0,0 l/m 4,8 km/h (1 Bft) 0 min 7,0 km/h (2 Bft)
04.11.2009 09:42 14,2 C 8,2 C 0,5 UV-I 0,0 C 63 % 93 % 0 % 985,4 hPa 0,0 l/m 4,3 km/h (1 Bft) 0 min 7,2 km/h (2 Bft)
04.11.2009 09:44 14,4 C 8,3 C 0,5 UV-I 0,0 C 64 % 93 % 0 % 985,4 hPa 0,0 l/m 4,1 km/h (1 Bft) 0 min 5,3 km/h (1 Bft)
04.11.2009 09:46 14,4 C 8,3 C 0,5 UV-I 0,0 C 64 % 93 % 0 % 985,4 hPa 0,0 l/m 3,6 km/h (1 Bft) 0 min 4,3 km/h (1 Bft)
04.11.2009 09:48 14,4 C 8,3 C 0,5 UV-I 0,0 C 64 % 93 % 0 % 985,4 hPa 0,0 l/m 3,8 km/h (1 Bft) 0 min 5,3 km/h (1 Bft)
04.11.2009 09:54 14,4 C 8,3 C 0,6 UV-I 0,0 C 64 % 93 % 0 % 985,4 hPa 0,0 l/m 3,8 km/h (1 Bft) 0 min 3,4 km/h (1 Bft)
04.11.2009 09:56 14,4 C 8,3 C 0,6 UV-I 0,0 C 64 % 93 % 0 % 985,7 hPa 0,0 l/m 3,6 km/h (1 Bft) 0 min 3,1 km/h (1 Bft)
04.11.2009 09:58 14,4 C 8,3 C 0,6 UV-I 0,0 C 64 % 93 % 0 % 985,7 hPa 0,0 l/m 4,1 km/h (1 Bft) 0 min 7,9 km/h (2 Bft)
04.11.2009 10:00 14,4 C 8,3 C 0,7 UV-I 0,0 C 64 % 93 % 0 % 985,7 hPa 0,0 l/m 4,3 km/h (1 Bft) 0 min 8,7 km/h (2 Bft)
04.11.2009 10:02 14,4 C 8,2 C 0,7 UV-I 0,0 C 63 % 93 % 0 % 985,7 hPa 0,0 l/m 4,3 km/h (1 Bft) 0 min 5,3 km/h (1 Bft)
04.11.2009 10:06 14,4 C 8,3 C 0,8 UV-I 0,0 C 63 % 92 % 0 % 985,7 hPa 0,0 l/m 4,8 km/h (1 Bft) 0 min 5,5 km/h (1 Bft)
04.11.2009 10:08 14,4 C 8,2 C 0,8 UV-I 0,0 C 63 % 92 % 0 % 985,7 hPa 0,0 l/m 5,1 km/h (1 Bft) 0 min 3,6 km/h (1 Bft)
04.11.2009 10:10 14,4 C 8,2 C 1,0 UV-I 0,0 C 63 % 92 % 0 % 985,7 hPa 0,0 l/m 4,6 km/h (1 Bft) 0 min 6,0 km/h (2 Bft)
04.11.2009 10:12 14,4 C 8,3 C 1,0 UV-I 0,0 C 63 % 92 % 0 % 985,7 hPa 0,0 l/m 4,8 km/h (1 Bft) 0 min 4,1 km/h (1 Bft)
04.11.2009 10:14 14,4 C 8,3 C 1,0 UV-I 0,0 C 63 % 92 % 0 % 985,7 hPa 0,0 l/m 5,1 km/h (1 Bft) 0 min 8,7 km/h (2 Bft)
04.11.2009 10:16 14,4 C 8,3 C 1,2 UV-I 0,0 C 63 % 92 % 0 % 985,7 hPa 0,0 l/m 4,8 km/h (1 Bft) 0 min 8,4 km/h (2 Bft)
04.11.2009 10:18 14,4 C 8,3 C 1,2 UV-I 0,0 C 63 % 92 % 0 % 985,7 hPa 0,0 l/m 4,6 km/h (1 Bft) 0 min 7,2 km/h (2 Bft)
04.11.2009 10:20 14,4 C 8,3 C 1,2 UV-I 0,0 C 63 % 92 % 0 % 985,7 hPa 0,0 l/m 4,8 km/h (1 Bft) 0 min 4,8 km/h (1 Bft)
04.11.2009 10:26 14,3 C 8,3 C 1,2 UV-I 0,3 C 63 % 92 % 9 % 985,7 hPa 0,0 l/m 4,6 km/h (1 Bft) 0 min 11,1 km/h (2 Bft)
04.11.2009 10:28 14,2 C 8,4 C 1,2 UV-I 0,3 C 63 % 92 % 9 % 985,7 hPa 0,0 l/m 4,6 km/h (1 Bft) 0 min 8,2 km/h (2 Bft)
04.11.2009 10:30 14,4 C 8,4 C 1,5 UV-I 0,5 C 63 % 92 % 14 % 985,7 hPa 0,0 l/m 4,8 km/h (1 Bft) 0 min 6,5 km/h (2 Bft)
04.11.2009 10:32 14,2 C 8,4 C 1,5 UV-I 0,6 C 63 % 91 % 17 % 985,7 hPa 0,0 l/m 5,3 km/h (1 Bft) 0 min 7,0 km/h (2 Bft)
04.11.2009 10:34 14,4 C 8,4 C 1,5 UV-I 0,6 C 63 % 91 % 17 % 985,7 hPa 0,0 l/m 5,5 km/h (1 Bft) 0 min 12,3 km/h (3 Bft)
04.11.2009 10:38 14,4 C 8,5 C 1,6 UV-I 0,6 C 63 % 92 % 17 % 986,0 hPa 0,0 l/m 6,5 km/h (2 Bft) 0 min 19,7 km/h (3 Bft)
04.11.2009 10:40 14,4 C 8,5 C 1,5 UV-I 0,5 C 63 % 92 % 14 % 986,0 hPa 0,0 l/m 6,7 km/h (2 Bft) 0 min 19,7 km/h (3 Bft)
04.11.2009 10:42 14,4 C 8,5 C 1,5 UV-I 0,4 C 63 % 91 % 11 % 986,0 hPa 0,0 l/m 7,2 km/h (2 Bft) 0 min 10,1 km/h (2 Bft)
04.11.2009 10:44 14,4 C 8,4 C 1,5 UV-I 0,5 C 63 % 91 % 14 % 986,0 hPa 0,0 l/m 6,7 km/h (2 Bft) 0 min 4,3 km/h (1 Bft)
04.11.2009 10:48 14,4 C 8,5 C 1,5 UV-I 0,4 C 62 % 91 % 11 % 986,0 hPa 0,0 l/m 6,7 km/h (2 Bft) 0 min 16,4 km/h (3 Bft)
04.11.2009 10:50 14,4 C 8,5 C 1,2 UV-I 0,4 C 62 % 90 % 11 % 986,0 hPa 0,0 l/m 6,5 km/h (2 Bft) 0 min 6,7 km/h (2 Bft)
04.11.2009 10:54 14,4 C 8,5 C 1,2 UV-I 0,7 C 62 % 90 % 20 % 986,0 hPa 0,0 l/m 6,0 km/h (2 Bft) 0 min 10,6 km/h (2 Bft)
04.11.2009 10:56 14,4 C 8,5 C 1,1 UV-I 0,7 C 62 % 90 % 20 % 986,3 hPa 0,0 l/m 6,3 km/h (2 Bft) 0 min 13,0 km/h (3 Bft)
04.11.2009 10:58 14,4 C 8,5 C 1,1 UV-I 0,6 C 62 % 90 % 17 % 986,3 hPa 0,0 l/m 6,0 km/h (2 Bft) 0 min 7,2 km/h (2 Bft)
04.11.2009 11:00 14,4 C 8,5 C 1,0 UV-I 0,4 C 62 % 90 % 11 % 986,3 hPa 0,0 l/m 6,3 km/h (2 Bft) 0 min 8,7 km/h (2 Bft)
04.11.2009 11:02 14,4 C 8,5 C 1,0 UV-I 0,4 C 62 % 89 % 11 % 986,3 hPa 0,0 l/m 6,3 km/h (2 Bft) 0 min 9,6 km/h (2 Bft)
04.11.2009 11:04 14,4 C 8,5 C 1,0 UV-I 0,3 C 62 % 90 % 9 % 986,3 hPa 0,0 l/m 6,5 km/h (2 Bft) 0 min 4,6 km/h (1 Bft)
04.11.2009 11:06 14,4 C 8,4 C 1,1 UV-I 0,2 C 62 % 89 % 6 % 986,3 hPa 0,0 l/m 6,5 km/h (2 Bft) 0 min 9,9 km/h (2 Bft)
04.11.2009 11:12 14,4 C 8,5 C 1,1 UV-I 0,2 C 62 % 90 % 6 % 986,3 hPa 0,0 l/m 6,0 km/h (2 Bft) 0 min 6,3 km/h (2 Bft)
04.11.2009 11:14 14,4 C 8,5 C 1,1 UV-I 0,2 C 62 % 90 % 6 % 986,3 hPa 0,0 l/m 5,8 km/h (2 Bft) 0 min 6,7 km/h (2 Bft)
04.11.2009 11:18 14,3 C 8,5 C 1,6 UV-I 0,2 C 62 % 90 % 6 % 986,4 hPa 0,0 l/m 4,8 km/h (1 Bft) 0 min 5,3 km/h (1 Bft)
04.11.2009 11:20 14,3 C 8,5 C 1,6 UV-I 0,2 C 62 % 90 % 6 % 986,4 hPa 0,0 l/m 4,8 km/h (1 Bft) 0 min 5,5 km/h (1 Bft)
04.11.2009 11:22 14,3 C 8,5 C 1,6 UV-I 0,4 C 62 % 90 % 11 % 986,4 hPa 0,0 l/m 4,6 km/h (1 Bft) 0 min 7,7 km/h (2 Bft)
04.11.2009 11:26 14,3 C 8,5 C 1,3 UV-I 0,4 C 62 % 90 % 11 % 986,4 hPa 0,0 l/m 4,8 km/h (1 Bft) 0 min 7,0 km/h (2 Bft)
04.11.2009 11:28 14,3 C 8,6 C 1,3 UV-I 0,3 C 62 % 90 % 9 % 986,4 hPa 0,0 l/m 4,8 km/h (1 Bft) 0 min 8,9 km/h (2 Bft)
04.11.2009 11:30 14,3 C 8,7 C 1,1 UV-I 0,2 C 62 % 90 % 6 % 986,4 hPa 0,1 l/m 4,8 km/h (1 Bft) 0 min 8,7 km/h (2 Bft)
04.11.2009 11:32 14,3 C 8,6 C 1,1 UV-I 0,3 C 62 % 90 % 9 % 986,4 hPa 0,0 l/m 5,3 km/h (1 Bft) 0 min 8,9 km/h (2 Bft)
04.11.2009 11:34 14,3 C 8,6 C 1,1 UV-I 0,2 C 62 % 90 % 6 % 986,4 hPa 0,0 l/m 5,1 km/h (1 Bft) 0 min 7,5 km/h (2 Bft)
04.11.2009 11:38 14,5 C 8,6 C 1,4 UV-I 0,1 C 62 % 90 % 3 % 986,5 hPa 0,0 l/m 5,8 km/h (2 Bft) 0 min 7,2 km/h (2 Bft)
04.11.2009 11:42 14,3 C 8,6 C 1,7 UV-I 0,5 C 62 % 90 % 14 % 986,5 hPa 0,0 l/m 5,8 km/h (2 Bft) 0 min 9,4 km/h (2 Bft)
04.11.2009 11:44 14,5 C 8,7 C 1,7 UV-I 0,7 C 62 % 90 % 20 % 986,5 hPa 0,0 l/m 5,5 km/h (1 Bft) 0 min 4,8 km/h (1 Bft)
04.11.2009 11:46 14,5 C 8,7 C 1,8 UV-I 0,9 C 62 % 90 % 26 % 986,5 hPa 0,0 l/m 5,3 km/h (1 Bft) 0 min 2,9 km/h (1 Bft)
04.11.2009 11:48 14,5 C 8,7 C 1,8 UV-I 1,0 C 62 % 90 % 29 % 986,5 hPa 0,0 l/m 5,1 km/h (1 Bft) 0 min 8,9 km/h (2 Bft)
04.11.2009 11:52 14,4 C 8,7 C 1,8 UV-I 1,0 C 62 % 90 % 29 % 986,5 hPa 0,0 l/m 5,3 km/h (1 Bft) 0 min 11,5 km/h (2 Bft)
04.11.2009 11:58 14,4 C 8,8 C 2,1 UV-I 1,3 C 62 % 90 % 37 % 986,8 hPa 0,0 l/m 5,8 km/h (2 Bft) 0 min 11,5 km/h (2 Bft)
04.11.2009 12:00 14,4 C 8,9 C 2,3 UV-I 1,9 C 62 % 90 % 54 % 986,8 hPa 0,0 l/m 5,8 km/h (2 Bft) 0 min 9,6 km/h (2 Bft)
04.11.2009 12:02 14,6 C 9,0 C 2,3 UV-I 2,5 C 62 % 90 % 71 % 986,8 hPa 0,0 l/m 6,0 km/h (2 Bft) 0 min 7,7 km/h (2 Bft)
04.11.2009 12:06 14,6 C 9,0 C 2,3 UV-I 2,5 C 62 % 89 % 71 % 986,8 hPa 0,0 l/m 6,0 km/h (2 Bft) 0 min 7,7 km/h (2 Bft)
04.11.2009 12:10 14,6 C 9,0 C 1,0 UV-I 1,7 C 62 % 89 % 49 % 986,8 hPa 0,0 l/m 6,0 km/h (2 Bft) 0 min 8,7 km/h (2 Bft)
04.11.2009 12:12 14,6 C 9,1 C 1,0 UV-I 1,2 C 61 % 89 % 34 % 986,8 hPa 0,0 l/m 5,5 km/h (1 Bft) 0 min 11,8 km/h (2 Bft)
04.11.2009 12:14 14,6 C 9,1 C 1,0 UV-I 0,9 C 61 % 89 % 26 % 986,8 hPa 0,0 l/m 5,8 km/h (2 Bft) 0 min 6,0 km/h (2 Bft)
04.11.2009 12:20 14,6 C 9,0 C 0,6 UV-I 0,3 C 61 % 89 % 9 % 986,9 hPa 0,0 l/m 6,0 km/h (2 Bft) 0 min 10,1 km/h (2 Bft)
04.11.2009 12:22 14,6 C 8,9 C 0,6 UV-I 0,0 C 61 % 88 % 0 % 986,9 hPa 0,0 l/m 6,3 km/h (2 Bft) 0 min 4,1 km/h (1 Bft)
04.11.2009 12:24 14,6 C 8,9 C 0,6 UV-I 0,0 C 61 % 88 % 0 % 986,9 hPa 0,0 l/m 6,0 km/h (2 Bft) 0 min 7,5 km/h (2 Bft)
04.11.2009 12:26 14,6 C 8,8 C 0,4 UV-I 0,0 C 61 % 89 % 0 % 986,9 hPa 0,0 l/m 6,3 km/h (2 Bft) 0 min 7,9 km/h (2 Bft)
04.11.2009 12:28 14,6 C 8,9 C 0,4 UV-I 0,0 C 61 % 89 % 0 % 986,9 hPa 0,0 l/m 5,5 km/h (1 Bft) 0 min 4,3 km/h (1 Bft)
04.11.2009 12:30 14,6 C 8,8 C 0,7 UV-I 0,0 C 61 % 89 % 0 % 986,9 hPa 0,0 l/m 5,3 km/h (1 Bft) 0 min 6,5 km/h (2 Bft)
04.11.2009 12:36 14,6 C 8,7 C 0,3 UV-I 0,0 C 61 % 89 % 0 % 986,7 hPa 0,3 l/m 5,1 km/h (1 Bft) 0 min 5,8 km/h (2 Bft)
04.11.2009 12:40 14,6 C 8,7 C 0,0 UV-I 0,0 C 61 % 89 % 0 % 986,7 hPa 0,1 l/m 5,1 km/h (1 Bft) 0 min 6,7 km/h (2 Bft)
04.11.2009 12:42 14,6 C 8,7 C 0,0 UV-I 0,0 C 61 % 89 % 0 % 986,7 hPa 0,0 l/m 5,1 km/h (1 Bft) 0 min 7,9 km/h (2 Bft)
04.11.2009 12:44 14,6 C 8,7 C 0,0 UV-I 0,0 C 61 % 89 % 0 % 986,7 hPa 0,1 l/m 5,1 km/h (1 Bft) 0 min 7,0 km/h (2 Bft)
04.11.2009 12:48 14,7 C 8,7 C 0,4 UV-I 0,0 C 61 % 90 % 0 % 986,7 hPa 0,1 l/m 4,1 km/h (1 Bft) 0 min 4,8 km/h (1 Bft)
04.11.2009 12:50 14,7 C 8,7 C 0,4 UV-I 0,0 C 61 % 90 % 0 % 986,7 hPa 0,0 l/m 3,6 km/h (1 Bft) 0 min 8,2 km/h (2 Bft)
04.11.2009 12:52 14,7 C 8,7 C 0,4 UV-I 0,0 C 62 % 90 % 0 % 986,7 hPa 0,0 l/m 3,6 km/h (1 Bft) 0 min 5,5 km/h (1 Bft)
04.11.2009 12:54 14,6 C 8,8 C 0,4 UV-I 0,0 C 62 % 91 % 0 % 986,7 hPa 0,0 l/m 3,4 km/h (1 Bft) 0 min 6,5 km/h (2 Bft)
04.11.2009 12:56 14,8 C 8,8 C 1,8 UV-I 0,5 C 62 % 91 % 14 % 986,6 hPa 0,0 l/m 3,4 km/h (1 Bft) 0 min 2,9 km/h (1 Bft)
04.11.2009 12:58 14,8 C 8,8 C 1,8 UV-I 1,2 C 62 % 91 % 34 % 986,6 hPa 0,0 l/m 3,4 km/h (1 Bft) 0 min 0,0 km/h (0 Bft)
04.11.2009 13:02 14,8 C 9,1 C 2,4 UV-I 2,2 C 62 % 91 % 63 % 986,6 hPa 0,0 l/m 4,3 km/h (1 Bft) 0 min 7,0 km/h (2 Bft)
04.11.2009 13:06 14,8 C 9,1 C 2,1 UV-I 2,5 C 62 % 91 % 71 % 986,6 hPa 0,0 l/m 4,6 km/h (1 Bft) 0 min 14,0 km/h (3 Bft)
04.11.2009 13:08 14,8 C 9,2 C 2,1 UV-I 2,4 C 62 % 91 % 69 % 986,6 hPa 0,0 l/m 4,8 km/h (1 Bft) 0 min 7,2 km/h (2 Bft)
04.11.2009 13:10 14,8 C 9,2 C 1,6 UV-I 2,3 C 62 % 91 % 66 % 986,6 hPa 0,0 l/m 5,1 km/h (1 Bft) 0 min 4,3 km/h (1 Bft)
04.11.2009 13:12 14,8 C 9,2 C 1,6 UV-I 2,3 C 62 % 90 % 66 % 986,6 hPa 0,0 l/m 5,5 km/h (1 Bft) 0 min 11,3 km/h (2 Bft)
04.11.2009 13:14 15,0 C 9,2 C 1,6 UV-I 2,2 C 62 % 90 % 63 % 986,6 hPa 0,0 l/m 5,8 km/h (2 Bft) 0 min 7,7 km/h (2 Bft)
04.11.2009 13:16 15,0 C 9,2 C 1,6 UV-I 2,1 C 62 % 90 % 60 % 986,8 hPa 0,0 l/m 6,3 km/h (2 Bft) 0 min 7,9 km/h (2 Bft)
04.11.2009 13:18 15,0 C 9,3 C 1,6 UV-I 1,8 C 62 % 90 % 51 % 986,8 hPa 0,0 l/m 6,7 km/h (2 Bft) 0 min 6,5 km/h (2 Bft)
04.11.2009 13:20 15,0 C 9,4 C 1,6 UV-I 1,6 C 62 % 90 % 46 % 986,8 hPa 0,0 l/m 6,7 km/h (2 Bft) 0 min 7,0 km/h (2 Bft)
04.11.2009 13:22 15,1 C 9,5 C 1,6 UV-I 1,3 C 62 % 90 % 37 % 986,8 hPa 0,0 l/m 7,0 km/h (2 Bft) 0 min 5,8 km/h (2 Bft)
04.11.2009 13:24 15,1 C 9,5 C 1,6 UV-I 1,2 C 62 % 89 % 34 % 986,8 hPa 0,0 l/m 6,7 km/h (2 Bft) 0 min 9,6 km/h (2 Bft)
04.11.2009 13:28 15,1 C 9,4 C 1,4 UV-I 1,3 C 62 % 89 % 37 % 986,8 hPa 0,0 l/m 6,3 km/h (2 Bft) 0 min 10,6 km/h (2 Bft)
04.11.2009 13:30 15,1 C 9,5 C 0,8 UV-I 1,1 C 62 % 89 % 31 % 986,8 hPa 0,0 l/m 6,3 km/h (2 Bft) 0 min 8,2 km/h (2 Bft)
04.11.2009 13:32 15,1 C 9,5 C 0,8 UV-I 0,9 C 62 % 89 % 26 % 986,8 hPa 0,0 l/m 6,7 km/h (2 Bft) 0 min 10,6 km/h (2 Bft)
04.11.2009 13:34 15,1 C 9,5 C 0,8 UV-I 0,8 C 61 % 89 % 23 % 986,8 hPa 0,0 l/m 6,3 km/h (2 Bft) 0 min 7,7 km/h (2 Bft)
04.11.2009 13:44 15,0 C 9,6 C 0,7 UV-I 0,4 C 61 % 88 % 11 % 987,0 hPa 0,0 l/m 3,4 km/h (1 Bft) 0 min 5,8 km/h (2 Bft)
04.11.2009 13:48 15,0 C 9,6 C 0,9 UV-I 0,5 C 61 % 88 % 14 % 987,0 hPa 0,0 l/m 3,6 km/h (1 Bft) 0 min 5,1 km/h (1 Bft)
04.11.2009 13:53 15,0 C 9,8 C 0,9 UV-I 1,0 C 61 % 88 % 29 % 987,0 hPa 0,0 l/m 4,1 km/h (1 Bft) 0 min 5,5 km/h (1 Bft)
04.11.2009 13:58 15,2 C 10,0 C 1,7 UV-I 3,5 C 61 % 87 % 100 % 987,1 hPa 0,0 l/m 5,1 km/h (1 Bft) 2 min 6,3 km/h (2 Bft)
04.11.2009 14:03 15,3 C 10,3 C 1,7 UV-I 4,4 C 61 % 86 % 100 % 987,1 hPa 0,0 l/m 5,8 km/h (2 Bft) 2 min 12,3 km/h (3 Bft)
04.11.2009 14:08 15,5 C 10,5 C 2,0 UV-I 4,9 C 61 % 85 % 100 % 987,1 hPa 0,0 l/m 5,8 km/h (2 Bft) 2 min 3,6 km/h (1 Bft)
04.11.2009 14:13 15,6 C 10,8 C 2,0 UV-I 5,2 C 60 % 85 % 100 % 987,1 hPa 0,0 l/m 6,3 km/h (2 Bft) 2 min 4,6 km/h (1 Bft)
04.11.2009 14:18 15,6 C 10,9 C 1,7 UV-I 4,9 C 60 % 82 % 100 % 989,9 hPa 0,0 l/m 7,2 km/h (2 Bft) 2 min 20,0 km/h (4 Bft)
04.11.2009 14:23 15,8 C 10,8 C 1,7 UV-I 4,0 C 59 % 82 % 100 % 989,9 hPa 0,0 l/m 7,5 km/h (2 Bft) 2 min 8,4 km/h (2 Bft)
04.11.2009 14:26 15,8 C 10,8 C 1,6 UV-I 3,2 C 59 % 81 % 91 % 989,9 hPa 0,0 l/m 7,7 km/h (2 Bft) 2 min 10,6 km/h (2 Bft)
04.11.2009 14:28 15,9 C 10,8 C 1,6 UV-I 2,4 C 59 % 82 % 69 % 989,9 hPa 0,0 l/m 7,0 km/h (2 Bft) 0 min 6,5 km/h (2 Bft)
04.11.2009 14:30 15,9 C 10,8 C 1,6 UV-I 2,5 C 59 % 82 % 71 % 989,9 hPa 0,0 l/m 5,8 km/h (2 Bft) 0 min 5,3 km/h (1 Bft)
04.11.2009 14:32 15,9 C 10,8 C 1,6 UV-I 2,8 C 59 % 81 % 80 % 989,9 hPa 0,0 l/m 5,3 km/h (1 Bft) 2 min 8,7 km/h (2 Bft)
04.11.2009 14:34 15,8 C 10,9 C 1,6 UV-I 3,0 C 59 % 82 % 86 % 989,9 hPa 0,0 l/m 4,6 km/h (1 Bft) 2 min 6,0 km/h (2 Bft)
04.11.2009 14:36 16,0 C 10,9 C 1,6 UV-I 3,1 C 58 % 81 % 89 % 989,0 hPa 0,0 l/m 4,8 km/h (1 Bft) 2 min 9,4 km/h (2 Bft)
04.11.2009 14:38 16,0 C 10,9 C 1,6 UV-I 2,8 C 58 % 81 % 80 % 989,0 hPa 0,0 l/m 4,3 km/h (1 Bft) 2 min 5,3 km/h (1 Bft)
04.11.2009 14:40 16,0 C 10,9 C 1,4 UV-I 2,4 C 58 % 81 % 69 % 989,0 hPa 0,0 l/m 4,3 km/h (1 Bft) 0 min 5,3 km/h (1 Bft)
04.11.2009 14:42 16,0 C 10,9 C 1,4 UV-I 2,3 C 58 % 81 % 66 % 989,0 hPa 0,0 l/m 3,8 km/h (1 Bft) 0 min 6,3 km/h (2 Bft)
04.11.2009 14:44 16,0 C 10,9 C 1,4 UV-I 2,0 C 58 % 81 % 57 % 989,0 hPa 0,0 l/m 3,8 km/h (1 Bft) 0 min 4,8 km/h (1 Bft)
04.11.2009 14:46 15,9 C 10,8 C 1,3 UV-I 1,6 C 58 % 81 % 46 % 989,0 hPa 0,0 l/m 3,8 km/h (1 Bft) 0 min 3,1 km/h (1 Bft)
04.11.2009 14:48 15,9 C 10,8 C 1,3 UV-I 1,4 C 58 % 81 % 40 % 989,0 hPa 0,0 l/m 3,6 km/h (1 Bft) 0 min 3,4 km/h (1 Bft)
04.11.2009 14:50 15,9 C 10,8 C 1,1 UV-I 1,1 C 58 % 81 % 31 % 989,0 hPa 0,0 l/m 3,4 km/h (1 Bft) 0 min 3,6 km/h (1 Bft)
04.11.2009 14:52 15,9 C 10,8 C 1,1 UV-I 0,9 C 58 % 80 % 26 % 989,0 hPa 0,0 l/m 4,6 km/h (1 Bft) 0 min 8,9 km/h (2 Bft)
04.11.2009 14:54 15,9 C 10,8 C 1,1 UV-I 0,7 C 58 % 79 % 20 % 989,0 hPa 0,0 l/m 5,1 km/h (1 Bft) 0 min 18,5 km/h (3 Bft)
04.11.2009 14:56 15,9 C 10,9 C 0,8 UV-I 0,5 C 57 % 78 % 14 % 988,6 hPa 0,0 l/m 5,8 km/h (2 Bft) 0 min 12,5 km/h (3 Bft)
04.11.2009 14:58 16,0 C 10,8 C 0,8 UV-I 0,4 C 57 % 79 % 11 % 988,6 hPa 0,0 l/m 6,3 km/h (2 Bft) 0 min 5,3 km/h (1 Bft)
04.11.2009 15:00 16,0 C 10,9 C 1,1 UV-I 0,3 C 57 % 79 % 9 % 988,6 hPa 0,0 l/m 6,7 km/h (2 Bft) 0 min 8,2 km/h (2 Bft)
04.11.2009 15:02 16,0 C 10,8 C 1,1 UV-I 0,6 C 57 % 79 % 17 % 988,6 hPa 0,0 l/m 6,5 km/h (2 Bft) 0 min 7,0 km/h (2 Bft)
04.11.2009 15:04 16,0 C 10,9 C 1,1 UV-I 0,6 C 57 % 78 % 17 % 988,6 hPa 0,0 l/m 6,0 km/h (2 Bft) 0 min 3,1 km/h (1 Bft)
04.11.2009 15:06 15,9 C 10,8 C 0,9 UV-I 1,1 C 57 % 79 % 31 % 988,6 hPa 0,0 l/m 5,5 km/h (1 Bft) 0 min 8,2 km/h (2 Bft)
04.11.2009 15:08 15,9 C 10,9 C 0,9 UV-I 1,1 C 57 % 78 % 31 % 988,6 hPa 0,0 l/m 4,6 km/h (1 Bft) 0 min 4,1 km/h (1 Bft)
04.11.2009 15:10 15,9 C 10,9 C 0,8 UV-I 1,1 C 57 % 79 % 31 % 988,6 hPa 0,0 l/m 4,6 km/h (1 Bft) 0 min 6,3 km/h (2 Bft)
04.11.2009 15:12 16,0 C 10,9 C 0,8 UV-I 1,1 C 57 % 78 % 31 % 988,6 hPa 0,0 l/m 4,6 km/h (1 Bft) 0 min 6,0 km/h (2 Bft)
04.11.2009 15:14 16,0 C 10,9 C 0,8 UV-I 1,1 C 57 % 78 % 31 % 988,6 hPa 0,0 l/m 4,6 km/h (1 Bft) 0 min 7,9 km/h (2 Bft)
04.11.2009 15:16 16,0 C 10,9 C 0,9 UV-I 1,1 C 57 % 78 % 31 % 987,7 hPa 0,0 l/m 5,1 km/h (1 Bft) 0 min 13,0 km/h (3 Bft)
04.11.2009 15:18 16,0 C 10,9 C 0,9 UV-I 0,9 C 56 % 78 % 26 % 987,7 hPa 0,0 l/m 5,5 km/h (1 Bft) 0 min 9,4 km/h (2 Bft)
04.11.2009 15:20 16,0 C 10,9 C 0,8 UV-I 0,6 C 56 % 78 % 17 % 987,7 hPa 0,0 l/m 6,0 km/h (2 Bft) 0 min 7,7 km/h (2 Bft)
04.11.2009 15:22 16,0 C 10,9 C 0,8 UV-I 0,6 C 56 % 78 % 17 % 987,7 hPa 0,0 l/m 6,0 km/h (2 Bft) 0 min 7,9 km/h (2 Bft)
04.11.2009 15:24 16,0 C 10,9 C 0,8 UV-I 0,9 C 56 % 78 % 26 % 987,7 hPa 0,0 l/m 6,3 km/h (2 Bft) 0 min 8,2 km/h (2 Bft)
04.11.2009 15:26 16,0 C 11,0 C 0,9 UV-I 1,3 C 56 % 78 % 37 % 987,7 hPa 0,0 l/m 5,8 km/h (2 Bft) 0 min 3,8 km/h (1 Bft)
04.11.2009 15:28 16,0 C 11,0 C 0,9 UV-I 2,0 C 56 % 78 % 57 % 987,7 hPa 0,0 l/m 5,1 km/h (1 Bft) 2 min 6,0 km/h (2 Bft)
04.11.2009 15:30 15,8 C 11,1 C 0,9 UV-I 2,3 C 56 % 78 % 66 % 987,7 hPa 0,0 l/m 5,3 km/h (1 Bft) 2 min 7,9 km/h (2 Bft)
04.11.2009 15:32 15,9 C 11,1 C 0,9 UV-I 2,3 C 56 % 78 % 66 % 987,7 hPa 0,0 l/m 5,3 km/h (1 Bft) 2 min 6,0 km/h (2 Bft)
04.11.2009 15:34 15,9 C 11,0 C 0,9 UV-I 2,1 C 56 % 78 % 60 % 987,7 hPa 0,0 l/m 5,5 km/h (1 Bft) 2 min 7,2 km/h (2 Bft)
04.11.2009 15:36 15,9 C 11,0 C 0,7 UV-I 2,0 C 56 % 78 % 57 % 987,7 hPa 0,0 l/m 5,8 km/h (2 Bft) 2 min 6,3 km/h (2 Bft)
04.11.2009 15:38 15,9 C 10,9 C 0,7 UV-I 1,9 C 56 % 78 % 54 % 987,7 hPa 0,0 l/m 6,0 km/h (2 Bft) 2 min 4,8 km/h (1 Bft)
04.11.2009 15:40 15,8 C 10,9 C 0,6 UV-I 1,7 C 56 % 78 % 49 % 987,7 hPa 0,0 l/m 5,5 km/h (1 Bft) 2 min 4,6 km/h (1 Bft)
04.11.2009 15:42 15,8 C 10,9 C 0,6 UV-I 1,3 C 56 % 78 % 37 % 987,7 hPa 0,0 l/m 5,3 km/h (1 Bft) 0 min 11,3 km/h (2 Bft)
04.11.2009 15:44 15,8 C 10,9 C 0,6 UV-I 0,9 C 56 % 78 % 26 % 987,7 hPa 0,0 l/m 4,8 km/h (1 Bft) 0 min 0,0 km/h (0 Bft)
04.11.2009 15:46 15,8 C 10,9 C 0,6 UV-I 0,5 C 56 % 78 % 14 % 987,7 hPa 0,0 l/m 4,1 km/h (1 Bft) 0 min 2,4 km/h (1 Bft)
04.11.2009 15:48 15,8 C 10,9 C 0,6 UV-I 0,3 C 56 % 78 % 9 % 987,7 hPa 0,0 l/m 3,8 km/h (1 Bft) 0 min 9,1 km/h (2 Bft)
04.11.2009 15:50 15,8 C 10,8 C 0,2 UV-I 0,1 C 56 % 78 % 3 % 987,7 hPa 0,0 l/m 4,1 km/h (1 Bft) 0 min 3,1 km/h (1 Bft)
04.11.2009 15:52 15,6 C 10,8 C 0,2 UV-I 0,0 C 56 % 79 % 0 % 987,7 hPa 0,0 l/m 3,6 km/h (1 Bft) 0 min 7,7 km/h (2 Bft)
04.11.2009 15:54 15,6 C 10,8 C 0,2 UV-I 0,0 C 56 % 79 % 0 % 987,7 hPa 0,0 l/m 3,1 km/h (1 Bft) 0 min 2,6 km/h (1 Bft)
04.11.2009 15:56 15,6 C 10,7 C 0,1 UV-I 0,0 C 56 % 79 % 0 % 987,8 hPa 0,0 l/m 3,6 km/h (1 Bft) 0 min 10,3 km/h (2 Bft)
04.11.2009 15:58 15,6 C 10,7 C 0,1 UV-I 0,0 C 56 % 79 % 0 % 987,8 hPa 0,0 l/m 3,6 km/h (1 Bft) 0 min 5,8 km/h (2 Bft)
04.11.2009 16:00 15,7 C 10,7 C 0,0 UV-I 0,0 C 56 % 79 % 0 % 987,8 hPa 0,0 l/m 4,1 km/h (1 Bft) 0 min 12,3 km/h (3 Bft)
04.11.2009 16:02 15,6 C 10,7 C 0,0 UV-I 0,0 C 56 % 79 % 0 % 987,8 hPa 0,0 l/m 4,8 km/h (1 Bft) 0 min 5,3 km/h (1 Bft)
04.11.2009 16:04 15,6 C 10,7 C 0,0 UV-I 0,0 C 56 % 79 % 0 % 987,8 hPa 0,0 l/m 4,8 km/h (1 Bft) 0 min 7,7 km/h (2 Bft)
04.11.2009 16:06 15,6 C 10,6 C 0,0 UV-I 0,0 C 56 % 79 % 0 % 987,8 hPa 0,0 l/m 5,3 km/h (1 Bft) 0 min 2,6 km/h (1 Bft)
04.11.2009 16:08 15,6 C 10,7 C 0,0 UV-I 0,0 C 56 % 79 % 0 % 987,8 hPa 0,0 l/m 5,3 km/h (1 Bft) 0 min 6,3 km/h (2 Bft)
04.11.2009 16:10 15,6 C 10,7 C 0,0 UV-I 0,0 C 56 % 79 % 0 % 987,8 hPa 0,0 l/m 5,3 km/h (1 Bft) 0 min 7,9 km/h (2 Bft)
04.11.2009 16:12 15,6 C 10,6 C 0,0 UV-I 0,0 C 56 % 79 % 0 % 987,8 hPa 0,0 l/m 5,1 km/h (1 Bft) 0 min 10,8 km/h (2 Bft)
04.11.2009 16:14 15,6 C 10,6 C 0,0 UV-I 0,0 C 56 % 79 % 0 % 987,8 hPa 0,0 l/m 5,1 km/h (1 Bft) 0 min 4,8 km/h (1 Bft)
04.11.2009 16:16 15,4 C 10,7 C 0,0 UV-I 0,0 C 56 % 79 % 0 % 987,8 hPa 0,0 l/m 5,1 km/h (1 Bft) 0 min 5,1 km/h (1 Bft)
04.11.2009 16:18 15,4 C 10,6 C 0,0 UV-I 0,0 C 56 % 78 % 0 % 987,8 hPa 0,0 l/m 5,8 km/h (2 Bft) 0 min 8,7 km/h (2 Bft)
04.11.2009 16:20 15,5 C 10,6 C 0,0 UV-I 0,0 C 56 % 79 % 0 % 987,8 hPa 0,0 l/m 6,3 km/h (2 Bft) 0 min 9,6 km/h (2 Bft)
04.11.2009 16:22 15,5 C 10,5 C 0,0 UV-I 0,0 C 56 % 78 % 0 % 987,8 hPa 0,0 l/m 6,5 km/h (2 Bft) 0 min 9,6 km/h (2 Bft)
04.11.2009 16:24 15,5 C 10,5 C 0,0 UV-I 0,0 C 56 % 78 % 0 % 987,8 hPa 0,0 l/m 6,5 km/h (2 Bft) 0 min 11,8 km/h (2 Bft)
04.11.2009 16:26 15,3 C 10,5 C 0,0 UV-I 0,0 C 56 % 78 % 0 % 987,8 hPa 0,0 l/m 7,0 km/h (2 Bft) 0 min 11,3 km/h (2 Bft)
04.11.2009 16:28 15,4 C 10,5 C 0,0 UV-I 0,0 C 56 % 78 % 0 % 987,8 hPa 0,0 l/m 6,7 km/h (2 Bft) 0 min 7,5 km/h (2 Bft)
04.11.2009 16:30 15,4 C 10,4 C 0,0 UV-I 0,0 C 56 % 78 % 0 % 987,8 hPa 0,0 l/m 6,3 km/h (2 Bft) 0 min 6,3 km/h (2 Bft)
04.11.2009 16:32 15,4 C 10,4 C 0,0 UV-I 0,0 C 56 % 78 % 0 % 987,8 hPa 0,0 l/m 6,5 km/h (2 Bft) 0 min 10,1 km/h (2 Bft)
04.11.2009 16:34 15,4 C 10,4 C 0,0 UV-I 0,0 C 56 % 78 % 0 % 987,8 hPa 0,0 l/m 6,3 km/h (2 Bft) 0 min 4,3 km/h (1 Bft)
04.11.2009 16:36 15,4 C 10,4 C 0,0 UV-I 0,0 C 56 % 78 % 0 % 987,7 hPa 0,0 l/m 6,0 km/h (2 Bft) 0 min 8,2 km/h (2 Bft)
04.11.2009 16:38 15,2 C 10,4 C 0,0 UV-I 0,0 C 56 % 78 % 0 % 987,7 hPa 0,0 l/m 6,0 km/h (2 Bft) 0 min 10,8 km/h (2 Bft)
04.11.2009 16:40 15,2 C 10,4 C 0,0 UV-I 0,0 C 56 % 78 % 0 % 987,7 hPa 0,0 l/m 5,8 km/h (2 Bft) 0 min 6,7 km/h (2 Bft)
04.11.2009 16:42 15,3 C 10,4 C 0,0 UV-I 0,0 C 56 % 78 % 0 % 987,7 hPa 0,0 l/m 6,0 km/h (2 Bft) 0 min 11,1 km/h (2 Bft)
04.11.2009 16:44 15,3 C 10,5 C 0,0 UV-I 0,0 C 56 % 78 % 0 % 987,7 hPa 0,0 l/m 5,5 km/h (1 Bft) 0 min 7,5 km/h (2 Bft)
04.11.2009 16:46 15,1 C 10,5 C 0,0 UV-I 0,0 C 56 % 78 % 0 % 987,7 hPa 0,0 l/m 5,8 km/h (2 Bft) 0 min 9,4 km/h (2 Bft)
04.11.2009 16:48 15,1 C 10,4 C 0,0 UV-I 0,0 C 56 % 78 % 0 % 987,7 hPa 0,0 l/m 5,3 km/h (1 Bft) 0 min 5,5 km/h (1 Bft)
04.11.2009 16:50 15,1 C 10,3 C 0,0 UV-I 0,0 C 56 % 78 % 0 % 987,7 hPa 0,0 l/m 4,8 km/h (1 Bft) 0 min 4,1 km/h (1 Bft)
04.11.2009 16:52 15,2 C 10,3 C 0,0 UV-I 0,0 C 56 % 78 % 0 % 987,7 hPa 0,0 l/m 4,3 km/h (1 Bft) 0 min 3,1 km/h (1 Bft)
04.11.2009 16:54 15,2 C 10,3 C 0,0 UV-I 0,0 C 56 % 78 % 0 % 987,7 hPa 0,0 l/m 4,6 km/h (1 Bft) 0 min 6,3 km/h (2 Bft)
04.11.2009 16:56 15,2 C 10,3 C 0,0 UV-I 0,0 C 56 % 79 % 0 % 987,6 hPa 0,0 l/m 4,3 km/h (1 Bft) 0 min 4,6 km/h (1 Bft)
04.11.2009 16:58 15,2 C 10,3 C 0,0 UV-I 0,0 C 56 % 79 % 0 % 987,6 hPa 0,0 l/m 4,6 km/h (1 Bft) 0 min 8,7 km/h (2 Bft)
04.11.2009 17:00 15,2 C 10,3 C 0,0 UV-I 0,0 C 56 % 78 % 0 % 987,6 hPa 0,0 l/m 5,1 km/h (1 Bft) 0 min 6,5 km/h (2 Bft)
04.11.2009 17:02 15,1 C 10,1 C 0,0 UV-I 0,0 C 56 % 79 % 0 % 987,6 hPa 0,0 l/m 5,5 km/h (1 Bft) 0 min 7,5 km/h (2 Bft)
04.11.2009 17:04 15,1 C 10,1 C 0,0 UV-I 0,0 C 56 % 79 % 0 % 987,6 hPa 0,0 l/m 4,6 km/h (1 Bft) 0 min 4,8 km/h (1 Bft)
04.11.2009 17:06 15,1 C 10,0 C 0,0 UV-I 0,0 C 57 % 79 % 0 % 987,6 hPa 0,0 l/m 4,6 km/h (1 Bft) 0 min 5,8 km/h (2 Bft)
04.11.2009 17:08 15,1 C 10,0 C 0,0 UV-I 0,0 C 57 % 79 % 0 % 987,6 hPa 0,0 l/m 4,3 km/h (1 Bft) 0 min 4,6 km/h (1 Bft)
04.11.2009 17:10 15,1 C 10,0 C 0,0 UV-I 0,0 C 57 % 79 % 0 % 987,6 hPa 0,0 l/m 3,8 km/h (1 Bft) 0 min 7,0 km/h (2 Bft)
04.11.2009 17:12 14,9 C 10,0 C 0,0 UV-I 0,0 C 57 % 79 % 0 % 987,6 hPa 0,0 l/m 3,6 km/h (1 Bft) 0 min 3,1 km/h (1 Bft)
04.11.2009 17:14 14,9 C 9,9 C 0,0 UV-I 0,0 C 57 % 79 % 0 % 987,6 hPa 0,0 l/m 3,4 km/h (1 Bft) 0 min 5,3 km/h (1 Bft)
04.11.2009 17:16 14,9 C 9,9 C 0,0 UV-I 0,0 C 57 % 79 % 0 % 987,3 hPa 0,0 l/m 3,4 km/h (1 Bft) 0 min 6,0 km/h (2 Bft)
04.11.2009 17:18 15,0 C 9,9 C 0,0 UV-I 0,0 C 57 % 79 % 0 % 987,3 hPa 0,0 l/m 3,1 km/h (1 Bft) 0 min 6,7 km/h (2 Bft)
04.11.2009 17:20 15,0 C 9,9 C 0,0 UV-I 0,0 C 57 % 79 % 0 % 987,3 hPa 0,0 l/m 3,1 km/h (1 Bft) 0 min 6,0 km/h (2 Bft)
04.11.2009 17:22 15,0 C 9,9 C 0,0 UV-I 0,0 C 57 % 79 % 0 % 987,3 hPa 0,0 l/m 2,9 km/h (1 Bft) 0 min 3,4 km/h (1 Bft)
04.11.2009 17:24 15,0 C 9,9 C 0,0 UV-I 0,0 C 57 % 79 % 0 % 987,3 hPa 0,0 l/m 2,6 km/h (1 Bft) 0 min 0,0 km/h (0 Bft)
04.11.2009 17:26 15,0 C 9,9 C 0,0 UV-I 0,0 C 57 % 79 % 0 % 987,3 hPa 0,0 l/m 2,4 km/h (1 Bft) 0 min 0,0 km/h (0 Bft)
04.11.2009 17:28 15,0 C 9,9 C 0,0 UV-I 0,0 C 57 % 80 % 0 % 987,3 hPa 0,0 l/m 2,2 km/h (1 Bft) 0 min 2,9 km/h (1 Bft)
04.11.2009 17:30 15,0 C 9,8 C 0,0 UV-I 0,0 C 57 % 80 % 0 % 987,3 hPa 0,0 l/m 1,7 km/h (1 Bft) 0 min 0,0 km/h (0 Bft)
04.11.2009 17:32 15,0 C 9,8 C 0,0 UV-I 0,0 C 57 % 80 % 0 % 987,3 hPa 0,0 l/m 1,0 km/h (0 Bft) 0 min 0,0 km/h (0 Bft)
04.11.2009 17:34 15,0 C 9,7 C 0,0 UV-I 0,0 C 57 % 80 % 0 % 987,3 hPa 0,0 l/m 0,7 km/h (0 Bft) 0 min 0,0 km/h (0 Bft)
04.11.2009 17:36 15,0 C 9,7 C 0,0 UV-I 0,0 C 57 % 80 % 0 % 987,6 hPa 0,0 l/m 1,0 km/h (0 Bft) 0 min 7,0 km/h (2 Bft)
04.11.2009 17:38 15,0 C 9,7 C 0,0 UV-I 0,0 C 57 % 80 % 0 % 987,6 hPa 0,0 l/m 1,2 km/h (1 Bft) 0 min 7,0 km/h (2 Bft)
04.11.2009 17:40 15,0 C 9,7 C 0,0 UV-I 0,0 C 57 % 80 % 0 % 987,6 hPa 0,0 l/m 1,2 km/h (1 Bft) 0 min 0,0 km/h (0 Bft)
04.11.2009 17:42 15,0 C 9,6 C 0,0 UV-I 0,0 C 57 % 81 % 0 % 987,6 hPa 0,0 l/m 1,4 km/h (1 Bft) 0 min 2,4 km/h (1 Bft)
04.11.2009 17:44 15,0 C 9,6 C 0,0 UV-I 0,0 C 57 % 81 % 0 % 987,6 hPa 0,0 l/m 1,4 km/h (1 Bft) 0 min 0,0 km/h (0 Bft)
04.11.2009 17:46 15,0 C 9,6 C 0,0 UV-I 0,0 C 57 % 81 % 0 % 987,6 hPa 0,0 l/m 2,2 km/h (1 Bft) 0 min 6,7 km/h (2 Bft)
04.11.2009 17:48 15,0 C 9,7 C 0,0 UV-I 0,0 C 57 % 81 % 0 % 987,6 hPa 0,0 l/m 2,4 km/h (1 Bft) 0 min 0,0 km/h (0 Bft)
04.11.2009 17:50 15,0 C 9,7 C 0,0 UV-I 0,0 C 57 % 81 % 0 % 987,6 hPa 0,0 l/m 2,4 km/h (1 Bft) 0 min 3,1 km/h (1 Bft)
04.11.2009 17:52 15,0 C 9,6 C 0,0 UV-I 0,0 C 57 % 81 % 0 % 987,6 hPa 0,0 l/m 2,2 km/h (1 Bft) 0 min 2,4 km/h (1 Bft)
04.11.2009 17:54 14,8 C 9,6 C 0,0 UV-I 0,0 C 57 % 81 % 0 % 987,6 hPa 0,0 l/m 2,9 km/h (1 Bft) 0 min 7,7 km/h (2 Bft)
04.11.2009 17:56 14,8 C 9,5 C 0,0 UV-I 0,0 C 57 % 81 % 0 % 987,8 hPa 0,0 l/m 3,6 km/h (1 Bft) 0 min 6,5 km/h (2 Bft)
04.11.2009 18:00 14,8 C 9,5 C 0,0 UV-I 0,0 C 57 % 82 % 0 % 987,8 hPa 0,0 l/m 3,8 km/h (1 Bft) 0 min 8,7 km/h (2 Bft)
04.11.2009 18:02 14,8 C 9,5 C 0,0 UV-I 0,0 C 57 % 82 % 0 % 987,8 hPa 0,0 l/m 4,6 km/h (1 Bft) 0 min 3,1 km/h (1 Bft)
04.11.2009 18:04 14,8 C 9,4 C 0,0 UV-I 0,0 C 57 % 82 % 0 % 987,8 hPa 0,0 l/m 5,8 km/h (2 Bft) 0 min 13,7 km/h (3 Bft)
04.11.2009 18:06 14,9 C 9,4 C 0,0 UV-I 0,0 C 57 % 82 % 0 % 987,8 hPa 0,0 l/m 6,0 km/h (2 Bft) 0 min 6,7 km/h (2 Bft)
04.11.2009 18:08 14,8 C 9,4 C 0,0 UV-I 0,0 C 58 % 82 % 0 % 987,8 hPa 0,0 l/m 6,0 km/h (2 Bft) 0 min 4,1 km/h (1 Bft)
04.11.2009 18:10 14,8 C 9,4 C 0,0 UV-I 0,0 C 57 % 82 % 0 % 987,8 hPa 0,0 l/m 6,5 km/h (2 Bft) 0 min 14,0 km/h (3 Bft)
04.11.2009 18:12 14,8 C 9,5 C 0,0 UV-I 0,0 C 58 % 82 % 0 % 987,8 hPa 0,0 l/m 6,0 km/h (2 Bft) 0 min 6,5 km/h (2 Bft)
04.11.2009 18:14 14,8 C 9,5 C 0,0 UV-I 0,0 C 58 % 82 % 0 % 987,8 hPa 0,0 l/m 5,8 km/h (2 Bft) 0 min 4,1 km/h (1 Bft)
04.11.2009 18:16 14,8 C 9,5 C 0,0 UV-I 0,0 C 58 % 82 % 0 % 988,0 hPa 0,0 l/m 4,8 km/h (1 Bft) 0 min 3,4 km/h (1 Bft)
04.11.2009 18:18 14,8 C 9,4 C 0,0 UV-I 0,0 C 58 % 82 % 0 % 988,0 hPa 0,0 l/m 4,6 km/h (1 Bft) 0 min 6,0 km/h (2 Bft)
04.11.2009 18:20 14,8 C 9,3 C 0,0 UV-I 0,0 C 58 % 82 % 0 % 988,0 hPa 0,0 l/m 4,1 km/h (1 Bft) 0 min 5,8 km/h (2 Bft)
04.11.2009 18:22 14,8 C 9,3 C 0,0 UV-I 0,0 C 58 % 82 % 0 % 988,0 hPa 0,0 l/m 3,8 km/h (1 Bft) 0 min 6,7 km/h (2 Bft)
04.11.2009 18:26 14,8 C 9,3 C 0,0 UV-I 0,0 C 58 % 82 % 0 % 988,0 hPa 0,0 l/m 4,8 km/h (1 Bft) 0 min 11,5 km/h (2 Bft)
04.11.2009 18:28 14,8 C 9,3 C 0,0 UV-I 0,0 C 58 % 82 % 0 % 988,0 hPa 0,0 l/m 5,1 km/h (1 Bft) 0 min 6,0 km/h (2 Bft)
04.11.2009 18:30 14,6 C 9,3 C 0,0 UV-I 0,0 C 58 % 82 % 0 % 988,0 hPa 0,0 l/m 4,8 km/h (1 Bft) 0 min 8,7 km/h (2 Bft)
04.11.2009 18:32 14,6 C 9,3 C 0,0 UV-I 0,0 C 58 % 82 % 0 % 988,0 hPa 0,0 l/m 4,8 km/h (1 Bft) 0 min 3,8 km/h (1 Bft)
04.11.2009 18:34 14,6 C 9,3 C 0,0 UV-I 0,0 C 58 % 82 % 0 % 988,0 hPa 0,0 l/m 4,6 km/h (1 Bft) 0 min 4,8 km/h (1 Bft)
04.11.2009 18:36 14,7 C 9,3 C 0,0 UV-I 0,0 C 58 % 82 % 0 % 988,2 hPa 0,0 l/m 3,8 km/h (1 Bft) 0 min 3,1 km/h (1 Bft)
04.11.2009 18:38 14,6 C 9,3 C 0,0 UV-I 0,0 C 58 % 82 % 0 % 988,2 hPa 0,0 l/m 3,1 km/h (1 Bft) 0 min 0,0 km/h (0 Bft)
04.11.2009 18:40 14,7 C 9,2 C 0,0 UV-I 0,0 C 58 % 82 % 0 % 988,2 hPa 0,0 l/m 2,9 km/h (1 Bft) 0 min 5,1 km/h (1 Bft)
04.11.2009 18:42 14,7 C 9,2 C 0,0 UV-I 0,0 C 58 % 82 % 0 % 988,2 hPa 0,0 l/m 2,6 km/h (1 Bft) 0 min 7,2 km/h (2 Bft)
04.11.2009 18:44 14,7 C 9,2 C 0,0 UV-I 0,0 C 58 % 82 % 0 % 988,2 hPa 0,0 l/m 3,1 km/h (1 Bft) 0 min 7,9 km/h (2 Bft)
04.11.2009 18:46 14,7 C 9,3 C 0,0 UV-I 0,0 C 58 % 82 % 0 % 988,2 hPa 0,0 l/m 2,9 km/h (1 Bft) 0 min 3,6 km/h (1 Bft)
04.11.2009 18:48 14,7 C 9,2 C 0,0 UV-I 0,0 C 58 % 83 % 0 % 988,2 hPa 0,0 l/m 3,4 km/h (1 Bft) 0 min 6,3 km/h (2 Bft)
04.11.2009 18:50 14,7 C 9,2 C 0,0 UV-I 0,0 C 58 % 83 % 0 % 988,2 hPa 0,0 l/m 3,6 km/h (1 Bft) 0 min 6,3 km/h (2 Bft)
04.11.2009 18:52 14,7 C 9,2 C 0,0 UV-I 0,0 C 58 % 83 % 0 % 988,2 hPa 0,0 l/m 4,1 km/h (1 Bft) 0 min 3,4 km/h (1 Bft)
04.11.2009 18:54 14,6 C 9,3 C 0,0 UV-I 0,0 C 58 % 83 % 0 % 988,2 hPa 0,0 l/m 3,4 km/h (1 Bft) 0 min 7,2 km/h (2 Bft)
04.11.2009 18:56 14,6 C 9,3 C 0,0 UV-I 0,0 C 58 % 83 % 0 % 987,9 hPa 0,0 l/m 3,6 km/h (1 Bft) 0 min 9,1 km/h (2 Bft)
04.11.2009 18:58 14,7 C 9,3 C 0,0 UV-I 0,0 C 58 % 83 % 0 % 987,9 hPa 0,0 l/m 3,8 km/h (1 Bft) 0 min 5,1 km/h (1 Bft)
04.11.2009 19:00 14,6 C 9,3 C 0,0 UV-I 0,0 C 58 % 83 % 0 % 987,9 hPa 0,0 l/m 4,1 km/h (1 Bft) 0 min 4,8 km/h (1 Bft)
04.11.2009 19:02 14,6 C 9,3 C 0,0 UV-I 0,0 C 58 % 83 % 0 % 987,9 hPa 0,0 l/m 4,1 km/h (1 Bft) 0 min 9,1 km/h (2 Bft)
04.11.2009 19:04 14,6 C 9,3 C 0,0 UV-I 0,0 C 58 % 83 % 0 % 987,9 hPa 0,0 l/m 4,8 km/h (1 Bft) 0 min 5,8 km/h (2 Bft)
04.11.2009 19:06 14,6 C 9,3 C 0,0 UV-I 0,0 C 58 % 83 % 0 % 987,9 hPa 0,0 l/m 5,1 km/h (1 Bft) 0 min 7,7 km/h (2 Bft)
04.11.2009 19:08 14,6 C 9,3 C 0,0 UV-I 0,0 C 58 % 83 % 0 % 987,9 hPa 0,0 l/m 5,1 km/h (1 Bft) 0 min 10,6 km/h (2 Bft)
04.11.2009 19:10 14,6 C 9,3 C 0,0 UV-I 0,0 C 58 % 83 % 0 % 987,9 hPa 0,0 l/m 4,8 km/h (1 Bft) 0 min 2,4 km/h (1 Bft)
04.11.2009 19:12 14,6 C 9,3 C 0,0 UV-I 0,0 C 58 % 83 % 0 % 987,9 hPa 0,0 l/m 4,8 km/h (1 Bft) 0 min 6,3 km/h (2 Bft)
04.11.2009 19:14 14,6 C 9,3 C 0,0 UV-I 0,0 C 58 % 82 % 0 % 987,9 hPa 0,0 l/m 5,5 km/h (1 Bft) 0 min 7,7 km/h (2 Bft)
04.11.2009 19:16 14,6 C 9,3 C 0,0 UV-I 0,0 C 58 % 82 % 0 % 988,0 hPa 0,0 l/m 5,8 km/h (2 Bft) 0 min 4,3 km/h (1 Bft)
04.11.2009 19:18 14,6 C 9,3 C 0,0 UV-I 0,0 C 58 % 82 % 0 % 988,0 hPa 0,0 l/m 6,0 km/h (2 Bft) 0 min 11,3 km/h (2 Bft)
04.11.2009 19:20 14,6 C 9,3 C 0,0 UV-I 0,0 C 58 % 82 % 0 % 988,0 hPa 0,0 l/m 6,0 km/h (2 Bft) 0 min 6,3 km/h (2 Bft)
04.11.2009 19:22 14,6 C 9,3 C 0,0 UV-I 0,0 C 58 % 82 % 0 % 988,0 hPa 0,0 l/m 6,5 km/h (2 Bft) 0 min 4,6 km/h (1 Bft)
04.11.2009 19:24 14,6 C 9,3 C 0,0 UV-I 0,0 C 58 % 82 % 0 % 988,0 hPa 0,0 l/m 6,0 km/h (2 Bft) 0 min 6,3 km/h (2 Bft)
04.11.2009 19:28 14,6 C 9,3 C 0,0 UV-I 0,0 C 58 % 82 % 0 % 988,0 hPa 0,0 l/m 4,8 km/h (1 Bft) 0 min 2,6 km/h (1 Bft)
04.11.2009 19:30 14,6 C 9,3 C 0,0 UV-I 0,0 C 58 % 82 % 0 % 988,0 hPa 0,0 l/m 4,3 km/h (1 Bft) 0 min 4,3 km/h (1 Bft)
04.11.2009 19:32 14,6 C 9,3 C 0,0 UV-I 0,0 C 58 % 82 % 0 % 988,0 hPa 0,0 l/m 3,8 km/h (1 Bft) 0 min 6,0 km/h (2 Bft)
04.11.2009 19:36 14,6 C 9,3 C 0,0 UV-I 0,0 C 58 % 82 % 0 % 988,1 hPa 0,0 l/m 3,8 km/h (1 Bft) 0 min 10,1 km/h (2 Bft)
04.11.2009 19:38 14,6 C 9,3 C 0,0 UV-I 0,0 C 58 % 82 % 0 % 988,1 hPa 0,0 l/m 4,1 km/h (1 Bft) 0 min 11,3 km/h (2 Bft)
04.11.2009 19:40 14,6 C 9,3 C 0,0 UV-I 0,0 C 58 % 82 % 0 % 988,1 hPa 0,0 l/m 4,6 km/h (1 Bft) 0 min 7,0 km/h (2 Bft)
04.11.2009 19:42 14,6 C 9,3 C 0,0 UV-I 0,0 C 58 % 82 % 0 % 988,1 hPa 0,0 l/m 5,1 km/h (1 Bft) 0 min 9,4 km/h (2 Bft)
04.11.2009 19:44 14,6 C 9,3 C 0,0 UV-I 0,0 C 58 % 82 % 0 % 988,1 hPa 0,0 l/m 5,3 km/h (1 Bft) 0 min 3,6 km/h (1 Bft)
04.11.2009 19:46 14,6 C 9,4 C 0,0 UV-I 0,0 C 58 % 82 % 0 % 988,1 hPa 0,0 l/m 5,3 km/h (1 Bft) 0 min 4,3 km/h (1 Bft)
04.11.2009 19:48 14,6 C 9,4 C 0,0 UV-I 0,0 C 58 % 82 % 0 % 988,1 hPa 0,0 l/m 5,1 km/h (1 Bft) 0 min 4,8 km/h (1 Bft)
04.11.2009 19:50 14,6 C 9,3 C 0,0 UV-I 0,0 C 58 % 82 % 0 % 988,1 hPa 0,0 l/m 4,6 km/h (1 Bft) 0 min 3,4 km/h (1 Bft)
04.11.2009 19:52 14,6 C 9,3 C 0,0 UV-I 0,0 C 58 % 82 % 0 % 988,1 hPa 0,0 l/m 4,1 km/h (1 Bft) 0 min 3,8 km/h (1 Bft)
04.11.2009 19:54 14,6 C 9,4 C 0,0 UV-I 0,0 C 58 % 82 % 0 % 988,1 hPa 0,0 l/m 3,8 km/h (1 Bft) 0 min 9,6 km/h (2 Bft)
04.11.2009 19:58 14,4 C 9,3 C 0,0 UV-I 0,0 C 58 % 82 % 0 % 988,1 hPa 0,0 l/m 3,8 km/h (1 Bft) 0 min 10,6 km/h (2 Bft)
04.11.2009 20:00 14,4 C 9,4 C 0,0 UV-I 0,0 C 58 % 82 % 0 % 988,1 hPa 0,0 l/m 4,8 km/h (1 Bft) 0 min 10,8 km/h (2 Bft)
04.11.2009 20:02 14,6 C 9,4 C 0,0 UV-I 0,0 C 58 % 82 % 0 % 988,1 hPa 0,0 l/m 5,5 km/h (1 Bft) 0 min 16,6 km/h (3 Bft)
04.11.2009 20:04 14,4 C 9,5 C 0,0 UV-I 0,0 C 58 % 82 % 0 % 988,1 hPa 0,0 l/m 6,0 km/h (2 Bft) 0 min 3,6 km/h (1 Bft)
04.11.2009 20:06 14,4 C 9,5 C 0,0 UV-I 0,0 C 58 % 82 % 0 % 988,1 hPa 0,0 l/m 6,5 km/h (2 Bft) 0 min 12,0 km/h (2 Bft)
04.11.2009 20:08 14,4 C 9,5 C 0,0 UV-I 0,0 C 58 % 82 % 0 % 988,1 hPa 0,0 l/m 6,3 km/h (2 Bft) 0 min 8,7 km/h (2 Bft)
04.11.2009 20:10 14,4 C 9,5 C 0,0 UV-I 0,0 C 58 % 82 % 0 % 988,1 hPa 0,0 l/m 6,3 km/h (2 Bft) 0 min 13,5 km/h (3 Bft)
04.11.2009 20:12 14,4 C 9,5 C 0,0 UV-I 0,0 C 58 % 82 % 0 % 988,1 hPa 0,0 l/m 6,0 km/h (2 Bft) 0 min 7,0 km/h (2 Bft)
04.11.2009 20:14 14,4 C 9,5 C 0,0 UV-I 0,0 C 58 % 82 % 0 % 988,1 hPa 0,0 l/m 5,8 km/h (2 Bft) 0 min 6,0 km/h (2 Bft)
04.11.2009 20:16 14,4 C 9,5 C 0,0 UV-I 0,0 C 58 % 82 % 0 % 988,8 hPa 0,0 l/m 5,1 km/h (1 Bft) 0 min 7,0 km/h (2 Bft)
04.11.2009 20:18 14,4 C 9,4 C 0,0 UV-I 0,0 C 58 % 82 % 0 % 988,8 hPa 0,0 l/m 4,8 km/h (1 Bft) 0 min 3,4 km/h (1 Bft)
04.11.2009 20:20 14,4 C 9,4 C 0,0 UV-I 0,0 C 58 % 82 % 0 % 988,8 hPa 0,0 l/m 4,6 km/h (1 Bft) 0 min 4,6 km/h (1 Bft)
04.11.2009 20:24 14,4 C 9,4 C 0,0 UV-I 0,0 C 58 % 82 % 0 % 988,8 hPa 0,0 l/m 2,9 km/h (1 Bft) 0 min 0,0 km/h (0 Bft)
04.11.2009 20:26 14,4 C 9,4 C 0,0 UV-I 0,0 C 58 % 82 % 0 % 988,8 hPa 0,0 l/m 3,1 km/h (1 Bft) 0 min 7,2 km/h (2 Bft)
04.11.2009 20:28 14,4 C 9,3 C 0,0 UV-I 0,0 C 58 % 81 % 0 % 988,8 hPa 0,0 l/m 3,8 km/h (1 Bft) 0 min 9,4 km/h (2 Bft)
04.11.2009 20:30 14,4 C 9,4 C 0,0 UV-I 0,0 C 58 % 82 % 0 % 988,8 hPa 0,0 l/m 4,3 km/h (1 Bft) 0 min 10,1 km/h (2 Bft)
04.11.2009 20:32 14,4 C 9,4 C 0,0 UV-I 0,0 C 58 % 82 % 0 % 988,8 hPa 0,0 l/m 4,6 km/h (1 Bft) 0 min 10,6 km/h (2 Bft)
04.11.2009 20:34 14,4 C 9,4 C 0,0 UV-I 0,0 C 58 % 82 % 0 % 988,8 hPa 0,0 l/m 5,1 km/h (1 Bft) 0 min 4,3 km/h (1 Bft)
04.11.2009 20:36 14,4 C 9,4 C 0,0 UV-I 0,0 C 58 % 82 % 0 % 988,5 hPa 0,0 l/m 5,5 km/h (1 Bft) 0 min 11,5 km/h (2 Bft)
04.11.2009 20:38 14,4 C 9,4 C 0,0 UV-I 0,0 C 58 % 82 % 0 % 988,5 hPa 0,0 l/m 5,3 km/h (1 Bft) 0 min 8,7 km/h (2 Bft)
04.11.2009 20:40 14,4 C 9,3 C 0,0 UV-I 0,0 C 58 % 81 % 0 % 988,5 hPa 0,0 l/m 4,8 km/h (1 Bft) 0 min 6,5 km/h (2 Bft)
04.11.2009 20:42 14,4 C 9,3 C 0,0 UV-I 0,0 C 58 % 81 % 0 % 988,5 hPa 0,0 l/m 5,1 km/h (1 Bft) 0 min 8,7 km/h (2 Bft)
04.11.2009 20:44 14,4 C 9,3 C 0,0 UV-I 0,0 C 58 % 81 % 0 % 988,5 hPa 0,0 l/m 5,1 km/h (1 Bft) 0 min 11,3 km/h (2 Bft)
04.11.2009 20:46 14,5 C 9,3 C 0,0 UV-I 0,0 C 58 % 81 % 0 % 988,5 hPa 0,0 l/m 5,5 km/h (1 Bft) 0 min 10,1 km/h (2 Bft)
04.11.2009 20:48 14,5 C 9,3 C 0,0 UV-I 0,0 C 58 % 81 % 0 % 988,5 hPa 0,0 l/m 5,3 km/h (1 Bft) 0 min 6,5 km/h (2 Bft)
04.11.2009 20:50 14,4 C 9,3 C 0,0 UV-I 0,0 C 58 % 81 % 0 % 988,5 hPa 0,0 l/m 4,8 km/h (1 Bft) 0 min 5,3 km/h (1 Bft)
04.11.2009 20:52 14,5 C 9,2 C 0,0 UV-I 0,0 C 58 % 81 % 0 % 988,5 hPa 0,0 l/m 4,8 km/h (1 Bft) 0 min 4,1 km/h (1 Bft)
04.11.2009 20:56 14,5 C 9,2 C 0,0 UV-I 0,0 C 58 % 81 % 0 % 988,6 hPa 0,0 l/m 5,1 km/h (1 Bft) 0 min 12,5 km/h (3 Bft)
04.11.2009 20:58 14,5 C 9,2 C 0,0 UV-I 0,0 C 57 % 81 % 0 % 988,6 hPa 0,0 l/m 5,1 km/h (1 Bft) 0 min 5,5 km/h (1 Bft)
04.11.2009 21:00 14,3 C 9,2 C 0,0 UV-I 0,0 C 58 % 81 % 0 % 988,6 hPa 0,0 l/m 5,1 km/h (1 Bft) 0 min 7,5 km/h (2 Bft)
04.11.2009 21:02 14,5 C 9,1 C 0,0 UV-I 0,0 C 57 % 81 % 0 % 988,6 hPa 0,0 l/m 5,1 km/h (1 Bft) 0 min 6,7 km/h (2 Bft)
04.11.2009 21:04 14,5 C 9,1 C 0,0 UV-I 0,0 C 57 % 81 % 0 % 988,6 hPa 0,0 l/m 4,8 km/h (1 Bft) 0 min 6,7 km/h (2 Bft)
04.11.2009 21:06 14,5 C 9,1 C 0,0 UV-I 0,0 C 57 % 81 % 0 % 988,6 hPa 0,0 l/m 4,6 km/h (1 Bft) 0 min 9,4 km/h (2 Bft)
04.11.2009 21:08 14,5 C 8,9 C 0,0 UV-I 0,0 C 57 % 81 % 0 % 988,6 hPa 0,0 l/m 3,8 km/h (1 Bft) 0 min 6,7 km/h (2 Bft)
04.11.2009 21:10 14,5 C 8,9 C 0,0 UV-I 0,0 C 57 % 82 % 0 % 988,6 hPa 0,0 l/m 4,1 km/h (1 Bft) 0 min 5,1 km/h (1 Bft)
04.11.2009 21:12 14,3 C 8,9 C 0,0 UV-I 0,0 C 57 % 82 % 0 % 988,6 hPa 0,0 l/m 3,8 km/h (1 Bft) 0 min 8,7 km/h (2 Bft)
04.11.2009 21:14 14,3 C 8,9 C 0,0 UV-I 0,0 C 57 % 82 % 0 % 988,6 hPa 0,0 l/m 4,1 km/h (1 Bft) 0 min 5,8 km/h (2 Bft)
04.11.2009 21:16 14,3 C 8,9 C 0,0 UV-I 0,0 C 57 % 82 % 0 % 988,8 hPa 0,0 l/m 4,1 km/h (1 Bft) 0 min 4,1 km/h (1 Bft)
04.11.2009 21:18 14,3 C 8,8 C 0,0 UV-I 0,0 C 57 % 82 % 0 % 988,8 hPa 0,0 l/m 4,1 km/h (1 Bft) 0 min 4,3 km/h (1 Bft)
04.11.2009 21:20 14,3 C 8,8 C 0,0 UV-I 0,0 C 57 % 82 % 0 % 988,8 hPa 0,0 l/m 3,6 km/h (1 Bft) 0 min 3,8 km/h (1 Bft)
04.11.2009 21:22 14,3 C 8,8 C 0,0 UV-I 0,0 C 57 % 82 % 0 % 988,8 hPa 0,0 l/m 3,4 km/h (1 Bft) 0 min 4,1 km/h (1 Bft)
04.11.2009 21:24 14,3 C 8,7 C 0,0 UV-I 0,0 C 57 % 82 % 0 % 988,8 hPa 0,0 l/m 2,9 km/h (1 Bft) 0 min 2,4 km/h (1 Bft)
04.11.2009 21:26 14,3 C 8,7 C 0,0 UV-I 0,0 C 57 % 82 % 0 % 988,8 hPa 0,0 l/m 2,9 km/h (1 Bft) 0 min 3,4 km/h (1 Bft)
04.11.2009 21:28 14,3 C 8,7 C 0,0 UV-I 0,0 C 57 % 82 % 0 % 988,8 hPa 0,0 l/m 2,6 km/h (1 Bft) 0 min 4,6 km/h (1 Bft)
04.11.2009 21:30 14,3 C 8,7 C 0,0 UV-I 0,0 C 57 % 82 % 0 % 988,8 hPa 0,0 l/m 3,1 km/h (1 Bft) 0 min 8,4 km/h (2 Bft)
04.11.2009 21:32 14,3 C 8,6 C 0,0 UV-I 0,0 C 57 % 82 % 0 % 988,8 hPa 0,0 l/m 4,1 km/h (1 Bft) 0 min 8,7 km/h (2 Bft)
04.11.2009 21:34 14,4 C 8,5 C 0,0 UV-I 0,0 C 57 % 82 % 0 % 988,8 hPa 0,0 l/m 4,1 km/h (1 Bft) 0 min 3,1 km/h (1 Bft)
04.11.2009 21:36 14,4 C 8,5 C 0,0 UV-I 0,0 C 57 % 82 % 0 % 988,8 hPa 0,0 l/m 4,1 km/h (1 Bft) 0 min 3,4 km/h (1 Bft)
04.11.2009 21:38 14,4 C 8,5 C 0,0 UV-I 0,0 C 57 % 82 % 0 % 988,8 hPa 0,0 l/m 3,8 km/h (1 Bft) 0 min 2,6 km/h (1 Bft)
04.11.2009 21:42 14,4 C 8,4 C 0,0 UV-I 0,0 C 57 % 83 % 0 % 988,8 hPa 0,0 l/m 2,9 km/h (1 Bft) 0 min 5,3 km/h (1 Bft)
04.11.2009 21:44 14,4 C 8,5 C 0,0 UV-I 0,0 C 57 % 83 % 0 % 988,8 hPa 0,0 l/m 2,6 km/h (1 Bft) 0 min 0,0 km/h (0 Bft)
04.11.2009 21:46 14,4 C 8,4 C 0,0 UV-I 0,0 C 57 % 83 % 0 % 988,8 hPa 0,0 l/m 2,9 km/h (1 Bft) 0 min 4,8 km/h (1 Bft)
04.11.2009 21:48 14,4 C 8,4 C 0,0 UV-I 0,0 C 57 % 83 % 0 % 988,8 hPa 0,0 l/m 2,6 km/h (1 Bft) 0 min 6,5 km/h (2 Bft)
04.11.2009 21:50 14,4 C 8,4 C 0,0 UV-I 0,0 C 57 % 83 % 0 % 988,8 hPa 0,0 l/m 2,6 km/h (1 Bft) 0 min 4,3 km/h (1 Bft)
04.11.2009 21:54 14,2 C 8,3 C 0,0 UV-I 0,0 C 57 % 83 % 0 % 988,8 hPa 0,0 l/m 2,2 km/h (1 Bft) 0 min 2,9 km/h (1 Bft)
04.11.2009 21:58 14,2 C 8,3 C 0,0 UV-I 0,0 C 57 % 84 % 0 % 988,6 hPa 0,0 l/m 2,2 km/h (1 Bft) 0 min 11,1 km/h (2 Bft)
04.11.2009 22:00 14,4 C 8,3 C 0,0 UV-I 0,0 C 57 % 84 % 0 % 988,6 hPa 0,0 l/m 1,9 km/h (1 Bft) 0 min 0,0 km/h (0 Bft)
04.11.2009 22:02 14,4 C 8,2 C 0,0 UV-I 0,0 C 57 % 84 % 0 % 988,6 hPa 0,0 l/m 1,7 km/h (1 Bft) 0 min 5,1 km/h (1 Bft)
04.11.2009 22:04 14,4 C 8,1 C 0,0 UV-I 0,0 C 57 % 83 % 0 % 988,6 hPa 0,0 l/m 1,9 km/h (1 Bft) 0 min 0,0 km/h (0 Bft)
04.11.2009 22:06 14,4 C 8,0 C 0,0 UV-I 0,0 C 57 % 84 % 0 % 988,6 hPa 0,0 l/m 1,9 km/h (1 Bft) 0 min 2,6 km/h (1 Bft)
04.11.2009 22:08 14,4 C 8,1 C 0,0 UV-I 0,0 C 57 % 84 % 0 % 988,6 hPa 0,0 l/m 1,7 km/h (1 Bft) 0 min 0,0 km/h (0 Bft)
04.11.2009 22:12 14,4 C 8,0 C 0,0 UV-I 0,0 C 57 % 84 % 0 % 988,6 hPa 0,0 l/m 2,6 km/h (1 Bft) 0 min 6,3 km/h (2 Bft)
04.11.2009 22:14 14,4 C 8,0 C 0,0 UV-I 0,0 C 57 % 84 % 0 % 988,6 hPa 0,0 l/m 2,4 km/h (1 Bft) 0 min 5,8 km/h (2 Bft)
04.11.2009 22:16 14,4 C 7,9 C 0,0 UV-I 0,0 C 57 % 84 % 0 % 988,8 hPa 0,0 l/m 2,6 km/h (1 Bft) 0 min 4,6 km/h (1 Bft)
04.11.2009 22:18 14,4 C 7,9 C 0,0 UV-I 0,0 C 57 % 84 % 0 % 988,8 hPa 0,0 l/m 3,1 km/h (1 Bft) 0 min 5,8 km/h (2 Bft)
04.11.2009 22:20 14,4 C 7,9 C 0,0 UV-I 0,0 C 57 % 84 % 0 % 988,8 hPa 0,0 l/m 3,1 km/h (1 Bft) 0 min 3,8 km/h (1 Bft)
04.11.2009 22:22 14,4 C 7,9 C 0,0 UV-I 0,0 C 57 % 84 % 0 % 988,8 hPa 0,0 l/m 3,1 km/h (1 Bft) 0 min 2,4 km/h (1 Bft)
04.11.2009 22:24 14,4 C 7,9 C 0,0 UV-I 0,0 C 57 % 84 % 0 % 988,8 hPa 0,0 l/m 3,1 km/h (1 Bft) 0 min 3,1 km/h (1 Bft)
04.11.2009 22:26 14,4 C 7,9 C 0,0 UV-I 0,0 C 57 % 85 % 0 % 988,8 hPa 0,0 l/m 2,9 km/h (1 Bft) 0 min 5,3 km/h (1 Bft)
04.11.2009 22:28 14,4 C 7,8 C 0,0 UV-I 0,0 C 57 % 85 % 0 % 988,8 hPa 0,0 l/m 2,4 km/h (1 Bft) 0 min 0,0 km/h (0 Bft)
04.11.2009 22:30 14,4 C 7,9 C 0,0 UV-I 0,0 C 57 % 85 % 0 % 988,8 hPa 0,0 l/m 2,4 km/h (1 Bft) 0 min 6,3 km/h (2 Bft)
04.11.2009 22:32 14,4 C 7,9 C 0,0 UV-I 0,0 C 57 % 85 % 0 % 988,8 hPa 0,0 l/m 1,9 km/h (1 Bft) 0 min 0,0 km/h (0 Bft)
04.11.2009 22:34 14,4 C 7,9 C 0,0 UV-I 0,0 C 57 % 85 % 0 % 988,8 hPa 0,0 l/m 1,7 km/h (1 Bft) 0 min 2,4 km/h (1 Bft)
04.11.2009 22:36 14,4 C 7,7 C 0,0 UV-I 0,0 C 57 % 85 % 0 % 988,4 hPa 0,0 l/m 1,9 km/h (1 Bft) 0 min 5,8 km/h (2 Bft)
04.11.2009 22:38 14,4 C 7,7 C 0,0 UV-I 0,0 C 57 % 85 % 0 % 988,4 hPa 0,0 l/m 1,9 km/h (1 Bft) 0 min 4,6 km/h (1 Bft)
04.11.2009 22:40 14,2 C 7,7 C 0,0 UV-I 0,0 C 57 % 85 % 0 % 988,4 hPa 0,0 l/m 2,6 km/h (1 Bft) 0 min 6,0 km/h (2 Bft)
04.11.2009 22:42 14,2 C 7,7 C 0,0 UV-I 0,0 C 57 % 85 % 0 % 988,4 hPa 0,0 l/m 2,6 km/h (1 Bft) 0 min 2,9 km/h (1 Bft)
04.11.2009 22:44 14,2 C 7,7 C 0,0 UV-I 0,0 C 57 % 85 % 0 % 988,4 hPa 0,0 l/m 3,4 km/h (1 Bft) 0 min 12,5 km/h (3 Bft)
04.11.2009 22:46 14,3 C 7,7 C 0,0 UV-I 0,0 C 57 % 85 % 0 % 988,4 hPa 0,0 l/m 3,6 km/h (1 Bft) 0 min 5,8 km/h (2 Bft)
04.11.2009 22:48 14,3 C 7,7 C 0,0 UV-I 0,0 C 57 % 85 % 0 % 988,4 hPa 0,0 l/m 3,8 km/h (1 Bft) 0 min 6,7 km/h (2 Bft)
04.11.2009 22:50 14,3 C 7,7 C 0,0 UV-I 0,0 C 57 % 85 % 0 % 988,4 hPa 0,0 l/m 3,4 km/h (1 Bft) 0 min 2,9 km/h (1 Bft)
04.11.2009 22:52 14,3 C 7,7 C 0,0 UV-I 0,0 C 57 % 85 % 0 % 988,4 hPa 0,0 l/m 3,1 km/h (1 Bft) 0 min 4,8 km/h (1 Bft)
04.11.2009 22:54 14,3 C 7,7 C 0,0 UV-I 0,0 C 57 % 85 % 0 % 988,4 hPa 0,0 l/m 3,6 km/h (1 Bft) 0 min 6,3 km/h (2 Bft)
04.11.2009 22:56 14,3 C 7,7 C 0,0 UV-I 0,0 C 57 % 85 % 0 % 988,8 hPa 0,0 l/m 3,1 km/h (1 Bft) 0 min 6,5 km/h (2 Bft)
04.11.2009 22:58 14,3 C 7,7 C 0,0 UV-I 0,0 C 57 % 85 % 0 % 988,8 hPa 0,0 l/m 3,1 km/h (1 Bft) 0 min 3,6 km/h (1 Bft)
04.11.2009 23:00 14,1 C 7,7 C 0,0 UV-I 0,0 C 57 % 85 % 0 % 988,8 hPa 0,0 l/m 2,6 km/h (1 Bft) 0 min 4,8 km/h (1 Bft)
04.11.2009 23:02 14,1 C 7,6 C 0,0 UV-I 0,0 C 57 % 86 % 0 % 988,8 hPa 0,0 l/m 3,1 km/h (1 Bft) 0 min 0,0 km/h (0 Bft)
04.11.2009 23:04 14,1 C 7,6 C 0,0 UV-I 0,0 C 57 % 86 % 0 % 988,8 hPa 0,0 l/m 3,1 km/h (1 Bft) 0 min 5,3 km/h (1 Bft)
04.11.2009 23:06 14,1 C 7,6 C 0,0 UV-I 0,0 C 57 % 86 % 0 % 988,8 hPa 0,0 l/m 2,9 km/h (1 Bft) 0 min 4,6 km/h (1 Bft)
04.11.2009 23:08 14,1 C 7,7 C 0,0 UV-I 0,0 C 57 % 86 % 0 % 988,8 hPa 0,0 l/m 3,4 km/h (1 Bft) 0 min 6,3 km/h (2 Bft)
04.11.2009 23:10 14,2 C 7,7 C 0,0 UV-I 0,0 C 57 % 86 % 0 % 988,8 hPa 0,0 l/m 3,4 km/h (1 Bft) 0 min 5,3 km/h (1 Bft)
04.11.2009 23:12 14,1 C 7,7 C 0,0 UV-I 0,0 C 57 % 86 % 0 % 988,8 hPa 0,0 l/m 3,4 km/h (1 Bft) 0 min 6,5 km/h (2 Bft)
04.11.2009 23:14 14,2 C 7,7 C 0,0 UV-I 0,0 C 57 % 86 % 0 % 988,8 hPa 0,0 l/m 3,6 km/h (1 Bft) 0 min 5,1 km/h (1 Bft)
04.11.2009 23:16 14,2 C 7,7 C 0,0 UV-I 0,0 C 57 % 86 % 0 % 988,6 hPa 0,0 l/m 3,6 km/h (1 Bft) 0 min 5,8 km/h (2 Bft)
04.11.2009 23:18 14,2 C 7,7 C 0,0 UV-I 0,0 C 57 % 86 % 0 % 988,6 hPa 0,0 l/m 2,9 km/h (1 Bft) 0 min 0,0 km/h (0 Bft)
04.11.2009 23:20 14,2 C 7,7 C 0,0 UV-I 0,0 C 57 % 86 % 0 % 988,6 hPa 0,0 l/m 2,6 km/h (1 Bft) 0 min 3,6 km/h (1 Bft)
04.11.2009 23:22 14,2 C 7,8 C 0,0 UV-I 0,0 C 57 % 86 % 0 % 988,6 hPa 0,0 l/m 2,6 km/h (1 Bft) 0 min 7,0 km/h (2 Bft)
04.11.2009 23:24 14,2 C 7,8 C 0,0 UV-I 0,0 C 57 % 86 % 0 % 988,6 hPa 0,0 l/m 2,4 km/h (1 Bft) 0 min 5,3 km/h (1 Bft)
04.11.2009 23:26 14,2 C 7,8 C 0,0 UV-I 0,0 C 57 % 86 % 0 % 988,6 hPa 0,0 l/m 2,6 km/h (1 Bft) 0 min 5,1 km/h (1 Bft)
04.11.2009 23:30 14,2 C 7,9 C 0,0 UV-I 0,0 C 57 % 86 % 0 % 988,6 hPa 0,0 l/m 3,1 km/h (1 Bft) 0 min 5,5 km/h (1 Bft)
04.11.2009 23:32 14,2 C 7,9 C 0,0 UV-I 0,0 C 57 % 86 % 0 % 988,6 hPa 0,0 l/m 2,6 km/h (1 Bft) 0 min 5,3 km/h (1 Bft)
04.11.2009 23:34 14,2 C 7,9 C 0,0 UV-I 0,0 C 57 % 86 % 0 % 988,6 hPa 0,0 l/m 2,9 km/h (1 Bft) 0 min 10,8 km/h (2 Bft)
04.11.2009 23:36 14,2 C 7,8 C 0,0 UV-I 0,0 C 57 % 86 % 0 % 988,6 hPa 0,0 l/m 3,1 km/h (1 Bft) 0 min 0,0 km/h (0 Bft)
04.11.2009 23:38 14,1 C 7,9 C 0,0 UV-I 0,0 C 57 % 86 % 0 % 988,6 hPa 0,0 l/m 2,6 km/h (1 Bft) 0 min 4,3 km/h (1 Bft)
04.11.2009 23:40 14,2 C 7,9 C 0,0 UV-I 0,0 C 57 % 86 % 0 % 988,6 hPa 0,0 l/m 3,1 km/h (1 Bft) 0 min 5,5 km/h (1 Bft)
04.11.2009 23:42 14,2 C 7,9 C 0,0 UV-I 0,0 C 57 % 86 % 0 % 988,6 hPa 0,0 l/m 3,1 km/h (1 Bft) 0 min 3,1 km/h (1 Bft)
04.11.2009 23:44 14,2 C 7,9 C 0,0 UV-I 0,0 C 58 % 86 % 0 % 988,6 hPa 0,0 l/m 2,6 km/h (1 Bft) 0 min 3,6 km/h (1 Bft)
04.11.2009 23:46 14,2 C 7,9 C 0,0 UV-I 0,0 C 57 % 86 % 0 % 988,6 hPa 0,0 l/m 1,9 km/h (1 Bft) 0 min 2,9 km/h (1 Bft)
04.11.2009 23:48 14,1 C 7,9 C 0,0 UV-I 0,0 C 57 % 86 % 0 % 988,6 hPa 0,0 l/m 2,2 km/h (1 Bft) 0 min 3,4 km/h (1 Bft)
04.11.2009 23:50 14,1 C 7,9 C 0,0 UV-I 0,0 C 57 % 86 % 0 % 988,6 hPa 0,0 l/m 2,2 km/h (1 Bft) 0 min 3,6 km/h (1 Bft)
04.11.2009 23:52 14,1 C 7,9 C 0,0 UV-I 0,0 C 57 % 86 % 0 % 988,6 hPa 0,0 l/m 1,7 km/h (1 Bft) 0 min 3,8 km/h (1 Bft)
04.11.2009 23:54 14,1 C 7,9 C 0,0 UV-I 0,0 C 57 % 86 % 0 % 988,6 hPa 0,0 l/m 2,2 km/h (1 Bft) 0 min 3,6 km/h (1 Bft)
04.11.2009 23:56 14,1 C 7,9 C 0,0 UV-I 0,0 C 58 % 86 % 0 % 988,6 hPa 0,0 l/m 2,2 km/h (1 Bft) 0 min 5,5 km/h (1 Bft)
_ Min-Zeit 23:00 07:10 00:00 00:00 15:18 14:56 00:00 03:36 - 00:02 - 00:00
Minimum _ 14,1 C 7,6 C 0,0 UV-I 0,0 C 56 % 78 % 0 % 982,1 hPa - 0,0 km/h (0 Bft) - 0,0 km/h (0 Bft)
_ Max-Zeit 14:36 15:30 13:02 14:13 01:16 01:32 13:58 14:18 03:13 14:26 13:58 14:18
Maximum _ 16,0 C 11,1 C 2,4 UV-I 5,2 C 65 % 95 % 100 % 989,9 hPa 0,5 l/m 7,7 km/h
W-SW (2 Bft)
2 min 20,0 km/h
O-NO (4 Bft)
Durchschnitt _ 14,9 C 9,1 C 0,3 UV-I 0,3 C 61 % 88 % 8 % 985,9 hPa #5,4 l/m 3,4 km/h (1 Bft) #36 min. 5,2 km/h (1 Bft)
© 2012 W. Hausmann